Wetterdaten: Freitag, 04.11.2022
Datum Zeit Temp. Aussen Temp. o. S. Temp +5cm Feuchte Auss Luftdruck Regen Sonnenschein Regendauer Solar Windben Empfang
04.11.2022 00:00 11,0 C 10,0 C 6,7 C 93 % 1001,7 hPa 0,0 l/m 0 min 0 min 0 W/m 6,4 km/h (2 Bft) 97,83 %
04.11.2022 00:02 11,0 C 10,0 C 6,7 C 93 % 1001,7 hPa 0,0 l/m 0 min 0 min 0 W/m 16,1 km/h (3 Bft) 95,35 %
04.11.2022 00:04 11,0 C 10,0 C 6,7 C 93 % 1001,7 hPa 0,0 l/m 0 min 0 min 0 W/m 16,1 km/h (3 Bft) 97,87 %
04.11.2022 00:08 10,9 C 10,0 C 6,7 C 93 % 1001,7 hPa 0,0 l/m 0 min 0 min 0 W/m 12,9 km/h (3 Bft) 96,88 %
04.11.2022 00:10 10,9 C 10,0 C 6,7 C 93 % 1001,7 hPa 0,0 l/m 0 min 0 min 0 W/m 12,9 km/h (3 Bft) 100,00 %
04.11.2022 00:12 10,9 C 10,0 C 6,7 C 93 % 1001,7 hPa 0,0 l/m 0 min 0 min 0 W/m 6,4 km/h (2 Bft) 100,00 %
04.11.2022 00:14 10,9 C 10,0 C 6,7 C 93 % 1001,7 hPa 0,0 l/m 0 min 0 min 0 W/m 12,9 km/h (3 Bft) 100,00 %
04.11.2022 00:16 10,8 C 10,0 C 6,1 C 93 % 1001,7 hPa 0,0 l/m 0 min 0 min 0 W/m 12,9 km/h (3 Bft) 97,87 %
04.11.2022 00:18 10,8 C 10,0 C 6,1 C 93 % 1001,7 hPa 0,0 l/m 0 min 0 min 0 W/m 19,3 km/h (3 Bft) 100,00 %
04.11.2022 00:20 10,7 C 10,0 C 6,1 C 93 % 1001,9 hPa 0,0 l/m 0 min 0 min 0 W/m 19,3 km/h (3 Bft) 100,00 %
04.11.2022 00:22 10,7 C 10,0 C 6,1 C 93 % 1001,9 hPa 0,0 l/m 0 min 0 min 0 W/m 12,9 km/h (3 Bft) 100,00 %
04.11.2022 00:24 10,7 C 10,0 C 6,1 C 93 % 1001,9 hPa 0,0 l/m 0 min 0 min 0 W/m 12,9 km/h (3 Bft) 97,83 %
04.11.2022 00:26 10,6 C 10,0 C 6,1 C 93 % 1001,9 hPa 0,0 l/m 0 min 0 min 0 W/m 6,4 km/h (2 Bft) 100,00 %
04.11.2022 00:28 10,6 C 10,0 C 6,1 C 93 % 1002,0 hPa 0,0 l/m 0 min 0 min 0 W/m 12,9 km/h (3 Bft) 100,00 %
04.11.2022 00:30 10,6 C 10,0 C 6,1 C 93 % 1002,0 hPa 0,0 l/m 0 min 0 min 0 W/m 9,7 km/h (2 Bft) 100,00 %
04.11.2022 00:32 10,5 C 9,4 C 6,1 C 92 % 1002,0 hPa 0,0 l/m 0 min 0 min 0 W/m 12,9 km/h (3 Bft) 100,00 %
04.11.2022 00:34 10,5 C 9,4 C 6,1 C 92 % 1002,1 hPa 0,0 l/m 0 min 0 min 0 W/m 12,9 km/h (3 Bft) 97,87 %
04.11.2022 00:36 10,4 C 9,4 C 6,1 C 92 % 1002,2 hPa 0,0 l/m 0 min 0 min 0 W/m 12,9 km/h (3 Bft) 97,83 %
04.11.2022 00:38 10,4 C 9,4 C 5,6 C 92 % 1002,2 hPa 0,0 l/m 0 min 0 min 0 W/m 19,3 km/h (3 Bft) 97,87 %
04.11.2022 00:40 10,4 C 9,4 C 5,6 C 92 % 1002,2 hPa 0,0 l/m 0 min 0 min 0 W/m 19,3 km/h (3 Bft) 97,87 %
04.11.2022 00:42 10,4 C 9,4 C 5,6 C 92 % 1002,3 hPa 0,0 l/m 0 min 0 min 0 W/m 12,9 km/h (3 Bft) 95,74 %
04.11.2022 00:44 10,4 C 9,4 C 6,1 C 92 % 1002,4 hPa 0,0 l/m 0 min 0 min 0 W/m 12,9 km/h (3 Bft) 97,87 %
04.11.2022 00:46 10,3 C 9,4 C 5,6 C 92 % 1002,4 hPa 0,0 l/m 0 min 0 min 0 W/m 9,7 km/h (2 Bft) 97,87 %
04.11.2022 00:48 10,3 C 9,4 C 6,1 C 92 % 1002,4 hPa 0,0 l/m 0 min 0 min 0 W/m 12,9 km/h (3 Bft) 97,83 %
04.11.2022 00:50 10,3 C 9,4 C 5,6 C 92 % 1002,5 hPa 0,0 l/m 0 min 0 min 0 W/m 12,9 km/h (3 Bft) 97,87 %
04.11.2022 00:52 10,3 C 9,4 C 5,6 C 92 % 1002,6 hPa 0,0 l/m 0 min 0 min 0 W/m 16,1 km/h (3 Bft) 97,87 %
04.11.2022 00:54 10,3 C 9,4 C 5,6 C 92 % 1002,5 hPa 0,0 l/m 0 min 0 min 0 W/m 12,9 km/h (3 Bft) 97,87 %
04.11.2022 00:56 10,3 C 9,4 C 5,6 C 92 % 1002,6 hPa 0,0 l/m 0 min 0 min 0 W/m 12,9 km/h (3 Bft) 97,87 %
04.11.2022 00:58 10,3 C 9,4 C 5,6 C 92 % 1002,6 hPa 0,0 l/m 0 min 0 min 0 W/m 6,4 km/h (2 Bft) 97,87 %
04.11.2022 01:00 10,3 C 9,4 C 5,6 C 92 % 1002,6 hPa 0,0 l/m 0 min 0 min 0 W/m 19,3 km/h (3 Bft) 97,83 %
04.11.2022 01:02 10,3 C 9,4 C 5,6 C 92 % 1002,6 hPa 0,0 l/m 0 min 0 min 0 W/m 16,1 km/h (3 Bft) 97,87 %
04.11.2022 01:04 10,3 C 9,4 C 6,1 C 92 % 1002,7 hPa 0,0 l/m 0 min 0 min 0 W/m 19,3 km/h (3 Bft) 95,74 %
04.11.2022 01:06 10,3 C 9,4 C 6,1 C 92 % 1002,7 hPa 0,0 l/m 0 min 0 min 0 W/m 6,4 km/h (2 Bft) 97,87 %
04.11.2022 01:08 10,4 C 9,4 C 6,1 C 92 % 1002,7 hPa 0,0 l/m 0 min 0 min 0 W/m 6,4 km/h (2 Bft) 93,62 %
04.11.2022 01:10 10,4 C 9,4 C 6,1 C 92 % 1002,7 hPa 0,0 l/m 0 min 0 min 0 W/m 6,4 km/h (2 Bft) 97,87 %
04.11.2022 01:12 10,3 C 9,4 C 6,1 C 92 % 1002,7 hPa 0,0 l/m 0 min 2 min 0 W/m 22,5 km/h (4 Bft) 95,65 %
04.11.2022 01:14 10,4 C 9,4 C 6,1 C 92 % 1002,7 hPa 0,0 l/m 0 min 2 min 0 W/m 19,3 km/h (3 Bft) 97,87 %
04.11.2022 01:16 10,3 C 9,4 C 6,1 C 92 % 1002,8 hPa 0,0 l/m 0 min 2 min 0 W/m 25,7 km/h (4 Bft) 100,00 %
04.11.2022 01:18 10,4 C 9,4 C 6,1 C 92 % 1002,7 hPa 0,0 l/m 0 min 2 min 0 W/m 19,3 km/h (3 Bft) 100,00 %
04.11.2022 01:20 10,4 C 9,4 C 6,1 C 92 % 1002,8 hPa 0,0 l/m 0 min 2 min 0 W/m 22,5 km/h (4 Bft) 97,87 %
04.11.2022 01:22 10,4 C 9,4 C 6,1 C 92 % 1002,8 hPa 0,0 l/m 0 min 0 min 0 W/m 25,7 km/h (4 Bft) 100,00 %
04.11.2022 01:24 10,4 C 9,4 C 6,1 C 92 % 1002,9 hPa 0,0 l/m 0 min 0 min 0 W/m 22,5 km/h (4 Bft) 100,00 %
04.11.2022 01:26 10,3 C 9,4 C 6,1 C 92 % 1002,8 hPa 0,0 l/m 0 min 0 min 0 W/m 19,3 km/h (3 Bft) 95,74 %
04.11.2022 01:28 10,3 C 9,4 C 5,6 C 92 % 1003,0 hPa 0,0 l/m 0 min 2 min 0 W/m 22,5 km/h (4 Bft) 95,74 %
04.11.2022 01:30 10,3 C 9,4 C 6,1 C 92 % 1002,9 hPa 0,0 l/m 0 min 2 min 0 W/m 22,5 km/h (4 Bft) 97,87 %
04.11.2022 01:32 10,3 C 9,4 C 5,6 C 92 % 1002,9 hPa 0,0 l/m 0 min 2 min 0 W/m 25,7 km/h (4 Bft) 97,87 %
04.11.2022 01:34 10,3 C 9,4 C 6,1 C 92 % 1003,0 hPa 0,0 l/m 0 min 2 min 0 W/m 16,1 km/h (3 Bft) 95,74 %
04.11.2022 01:36 10,3 C 9,4 C 6,1 C 92 % 1003,0 hPa 0,0 l/m 0 min 2 min 0 W/m 25,7 km/h (4 Bft) 97,83 %
04.11.2022 01:38 10,3 C 9,4 C 5,6 C 92 % 1003,0 hPa 0,0 l/m 0 min 2 min 0 W/m 29,0 km/h (5 Bft) 97,87 %
04.11.2022 01:40 10,3 C 9,4 C 5,6 C 92 % 1003,0 hPa 0,0 l/m 0 min 2 min 0 W/m 19,3 km/h (3 Bft) 97,87 %
04.11.2022 01:42 10,3 C 9,4 C 6,1 C 92 % 1003,1 hPa 0,0 l/m 0 min 2 min 0 W/m 22,5 km/h (4 Bft) 97,87 %
04.11.2022 01:44 10,3 C 9,4 C 5,6 C 92 % 1003,1 hPa 0,0 l/m 0 min 2 min 0 W/m 22,5 km/h (4 Bft) 95,74 %
04.11.2022 01:46 10,3 C 9,4 C 5,6 C 92 % 1003,0 hPa 0,0 l/m 0 min 2 min 0 W/m 25,7 km/h (4 Bft) 97,87 %
04.11.2022 01:48 10,3 C 9,4 C 5,6 C 92 % 1003,1 hPa 0,0 l/m 0 min 0 min 0 W/m 19,3 km/h (3 Bft) 97,83 %
04.11.2022 01:50 10,4 C 9,4 C 5,6 C 92 % 1003,1 hPa 0,0 l/m 0 min 0 min 0 W/m 16,1 km/h (3 Bft) 95,74 %
04.11.2022 01:52 10,4 C 9,4 C 5,6 C 92 % 1003,3 hPa 0,0 l/m 0 min 0 min 0 W/m 12,9 km/h (3 Bft) 95,74 %
04.11.2022 01:54 10,4 C 9,4 C 5,6 C 92 % 1003,2 hPa 0,0 l/m 0 min 0 min 0 W/m 19,3 km/h (3 Bft) 100,00 %
04.11.2022 01:56 10,4 C 9,4 C 6,1 C 92 % 1003,3 hPa 0,0 l/m 0 min 0 min 0 W/m 19,3 km/h (3 Bft) 97,87 %
04.11.2022 01:58 10,4 C 9,4 C 6,1 C 92 % 1003,4 hPa 0,0 l/m 0 min 0 min 0 W/m 16,1 km/h (3 Bft) 100,00 %
04.11.2022 02:00 10,4 C 9,4 C 6,1 C 92 % 1003,3 hPa 0,0 l/m 0 min 0 min 0 W/m 12,9 km/h (3 Bft) 100,00 %
04.11.2022 02:02 10,4 C 9,4 C 6,1 C 92 % 1003,3 hPa 0,0 l/m 0 min 0 min 0 W/m 22,5 km/h (4 Bft) 95,74 %
04.11.2022 02:04 10,4 C 9,4 C 6,1 C 93 % 1003,3 hPa 0,0 l/m 0 min 0 min 0 W/m 25,7 km/h (4 Bft) 100,00 %
04.11.2022 02:06 10,4 C 9,4 C 6,1 C 93 % 1003,4 hPa 0,0 l/m 0 min 0 min 0 W/m 29,0 km/h (5 Bft) 100,00 %
04.11.2022 02:08 10,4 C 10,0 C 6,1 C 93 % 1003,3 hPa 0,0 l/m 0 min 0 min 0 W/m 19,3 km/h (3 Bft) 97,87 %
04.11.2022 02:10 10,4 C 9,4 C 6,1 C 93 % 1003,3 hPa 0,0 l/m 0 min 0 min 0 W/m 16,1 km/h (3 Bft) 100,00 %
04.11.2022 02:12 10,4 C 9,4 C 6,1 C 93 % 1003,4 hPa 0,0 l/m 0 min 0 min 0 W/m 32,2 km/h (5 Bft) 100,00 %
04.11.2022 02:14 10,4 C 9,4 C 6,1 C 93 % 1003,3 hPa 0,0 l/m 0 min 0 min 0 W/m 16,1 km/h (3 Bft) 97,87 %
04.11.2022 02:16 10,4 C 9,4 C 6,1 C 93 % 1003,4 hPa 0,0 l/m 0 min 0 min 0 W/m 29,0 km/h (5 Bft) 100,00 %
04.11.2022 02:18 10,4 C 9,4 C 5,6 C 93 % 1003,4 hPa 0,0 l/m 0 min 0 min 0 W/m 25,7 km/h (4 Bft) 100,00 %
04.11.2022 02:20 10,4 C 9,4 C 5,6 C 93 % 1003,4 hPa 0,0 l/m 0 min 0 min 0 W/m 25,7 km/h (4 Bft) 97,87 %
04.11.2022 02:22 10,4 C 9,4 C 5,6 C 93 % 1003,4 hPa 0,0 l/m 0 min 0 min 0 W/m 19,3 km/h (3 Bft) 100,00 %
04.11.2022 02:24 10,3 C 9,4 C 5,6 C 93 % 1003,4 hPa 0,0 l/m 0 min 0 min 0 W/m 22,5 km/h (4 Bft) 97,87 %
04.11.2022 02:26 10,3 C 9,4 C 5,6 C 93 % 1003,5 hPa 0,0 l/m 0 min 0 min 0 W/m 12,9 km/h (3 Bft) 95,74 %
04.11.2022 02:28 10,3 C 9,4 C 5,6 C 93 % 1003,6 hPa 0,0 l/m 0 min 0 min 0 W/m 6,4 km/h (2 Bft) 95,74 %
04.11.2022 02:30 10,3 C 9,4 C 5,6 C 93 % 1003,5 hPa 0,0 l/m 0 min 0 min 0 W/m 22,5 km/h (4 Bft) 97,87 %
04.11.2022 02:32 10,3 C 9,4 C 5,6 C 93 % 1003,6 hPa 0,0 l/m 0 min 0 min 0 W/m 19,3 km/h (3 Bft) 95,74 %
04.11.2022 02:34 10,2 C 9,4 C 5,6 C 93 % 1003,7 hPa 0,0 l/m 0 min 0 min 0 W/m 12,9 km/h (3 Bft) 97,87 %
04.11.2022 02:36 10,2 C 9,4 C 5,6 C 93 % 1003,8 hPa 0,0 l/m 0 min 0 min 0 W/m 19,3 km/h (3 Bft) 97,83 %
04.11.2022 02:38 10,2 C 9,4 C 5,6 C 93 % 1003,8 hPa 0,0 l/m 0 min 0 min 0 W/m 19,3 km/h (3 Bft) 93,62 %
04.11.2022 02:40 10,2 C 9,4 C 5,6 C 93 % 1003,8 hPa 0,0 l/m 0 min 0 min 0 W/m 16,1 km/h (3 Bft) 97,87 %
04.11.2022 02:42 10,2 C 9,4 C 5,6 C 93 % 1003,8 hPa 0,0 l/m 0 min 0 min 0 W/m 19,3 km/h (3 Bft) 95,74 %
04.11.2022 02:44 10,1 C 9,4 C 5,6 C 93 % 1003,7 hPa 0,0 l/m 0 min 0 min 0 W/m 9,7 km/h (2 Bft) 95,74 %
04.11.2022 02:46 10,1 C 9,4 C 5,6 C 93 % 1003,8 hPa 0,0 l/m 0 min 0 min 0 W/m 19,3 km/h (3 Bft) 95,65 %
04.11.2022 02:48 10,1 C 9,4 C 5,6 C 93 % 1003,7 hPa 0,0 l/m 0 min 0 min 0 W/m 16,1 km/h (3 Bft) 97,87 %
04.11.2022 02:50 10,1 C 8,9 C 5,6 C 93 % 1003,8 hPa 0,0 l/m 0 min 0 min 0 W/m 16,1 km/h (3 Bft) 95,74 %
04.11.2022 02:52 10,1 C 8,9 C 5,6 C 93 % 1003,7 hPa 0,0 l/m 0 min 0 min 0 W/m 16,1 km/h (3 Bft) 95,74 %
04.11.2022 02:54 10,0 C 8,9 C 5,6 C 93 % 1003,8 hPa 0,0 l/m 0 min 0 min 0 W/m 16,1 km/h (3 Bft) 97,87 %
04.11.2022 02:56 10,0 C 8,9 C 5,6 C 93 % 1003,8 hPa 0,0 l/m 0 min 0 min 0 W/m 12,9 km/h (3 Bft) 97,87 %
04.11.2022 02:58 9,9 C 8,9 C 5,6 C 93 % 1003,8 hPa 0,0 l/m 0 min 0 min 0 W/m 12,9 km/h (3 Bft) 93,48 %
04.11.2022 03:00 9,9 C 8,9 C 5,6 C 93 % 1003,9 hPa 0,0 l/m 0 min 0 min 0 W/m 22,5 km/h (4 Bft) 95,74 %
04.11.2022 03:02 9,9 C 8,9 C 5,6 C 93 % 1003,8 hPa 0,0 l/m 0 min 0 min 0 W/m 16,1 km/h (3 Bft) 95,74 %
04.11.2022 03:04 9,9 C 8,9 C 5,6 C 93 % 1003,8 hPa 0,0 l/m 0 min 0 min 0 W/m 22,5 km/h (4 Bft) 93,62 %
04.11.2022 03:06 9,8 C 8,9 C 5,6 C 93 % 1003,9 hPa 0,0 l/m 0 min 0 min 0 W/m 16,1 km/h (3 Bft) 93,62 %
04.11.2022 03:08 9,8 C 8,9 C 5,6 C 93 % 1003,9 hPa 0,0 l/m 0 min 0 min 0 W/m 16,1 km/h (3 Bft) 95,74 %
04.11.2022 03:10 9,8 C 8,9 C 5,6 C 93 % 1003,8 hPa 0,0 l/m 0 min 0 min 0 W/m 16,1 km/h (3 Bft) 95,65 %
04.11.2022 03:12 9,8 C 8,9 C 5,6 C 93 % 1003,9 hPa 0,0 l/m 0 min 0 min 0 W/m 25,7 km/h (4 Bft) 89,74 %
04.11.2022 03:14 9,8 C 8,9 C 5,6 C 93 % 1003,8 hPa 0,0 l/m 0 min 0 min 0 W/m 12,9 km/h (3 Bft) 93,62 %
04.11.2022 03:16 9,8 C 8,9 C 5,6 C 93 % 1003,8 hPa 0,0 l/m 0 min 0 min 0 W/m 19,3 km/h (3 Bft) 93,62 %
04.11.2022 03:18 9,8 C 8,9 C 5,0 C 93 % 1003,8 hPa 0,0 l/m 0 min 0 min 0 W/m 19,3 km/h (3 Bft) 93,48 %
04.11.2022 03:20 9,7 C 8,9 C 5,0 C 93 % 1003,8 hPa 0,0 l/m 0 min 0 min 0 W/m 12,9 km/h (3 Bft) 93,62 %
04.11.2022 03:22 9,7 C 8,9 C 5,0 C 93 % 1003,8 hPa 0,0 l/m 0 min 0 min 0 W/m 19,3 km/h (3 Bft) 93,62 %
04.11.2022 03:24 9,7 C 8,9 C 5,0 C 93 % 1003,8 hPa 0,0 l/m 0 min 0 min 0 W/m 12,9 km/h (3 Bft) 92,73 %
04.11.2022 03:26 9,7 C 8,9 C 5,0 C 93 % 1003,9 hPa 0,0 l/m 0 min 0 min 0 W/m 32,2 km/h (5 Bft) 92,11 %
04.11.2022 03:28 9,7 C 8,9 C 5,0 C 93 % 1003,9 hPa 0,0 l/m 0 min 0 min 0 W/m 16,1 km/h (3 Bft) 95,74 %
04.11.2022 03:30 9,6 C 8,9 C 5,0 C 93 % 1003,9 hPa 0,0 l/m 0 min 0 min 0 W/m 16,1 km/h (3 Bft) 95,74 %
04.11.2022 03:32 9,6 C 8,3 C 5,0 C 93 % 1003,9 hPa 0,0 l/m 0 min 0 min 0 W/m 9,7 km/h (2 Bft) 93,62 %
04.11.2022 03:34 9,6 C 8,3 C 5,0 C 93 % 1003,9 hPa 0,0 l/m 0 min 0 min 0 W/m 12,9 km/h (3 Bft) 91,49 %
04.11.2022 03:36 9,6 C 8,3 C 5,0 C 93 % 1004,0 hPa 0,0 l/m 0 min 0 min 0 W/m 16,1 km/h (3 Bft) 95,74 %
04.11.2022 03:38 9,5 C 8,3 C 5,0 C 93 % 1003,9 hPa 0,0 l/m 0 min 0 min 0 W/m 16,1 km/h (3 Bft) 97,87 %
04.11.2022 03:40 9,5 C 8,3 C 5,0 C 93 % 1003,9 hPa 0,0 l/m 0 min 0 min 0 W/m 12,9 km/h (3 Bft) 95,74 %
04.11.2022 03:42 9,4 C 8,3 C 5,0 C 93 % 1003,9 hPa 0,0 l/m 0 min 0 min 0 W/m 12,9 km/h (3 Bft) 100,00 %
04.11.2022 03:44 9,4 C 8,3 C 5,0 C 93 % 1003,9 hPa 0,0 l/m 0 min 0 min 0 W/m 19,3 km/h (3 Bft) 100,00 %
04.11.2022 03:46 9,4 C 8,3 C 5,0 C 93 % 1003,9 hPa 0,0 l/m 0 min 0 min 0 W/m 19,3 km/h (3 Bft) 100,00 %
04.11.2022 03:48 9,4 C 8,3 C 5,0 C 93 % 1003,9 hPa 0,0 l/m 0 min 0 min 0 W/m 12,9 km/h (3 Bft) 100,00 %
04.11.2022 03:50 9,4 C 8,3 C 5,0 C 93 % 1003,9 hPa 0,0 l/m 0 min 0 min 0 W/m 12,9 km/h (3 Bft) 100,00 %
04.11.2022 03:52 9,3 C 8,3 C 5,0 C 93 % 1003,9 hPa 0,0 l/m 0 min 0 min 0 W/m 19,3 km/h (3 Bft) 100,00 %
04.11.2022 03:54 9,3 C 8,3 C 5,0 C 93 % 1003,9 hPa 0,0 l/m 0 min 0 min 0 W/m 12,9 km/h (3 Bft) 100,00 %
04.11.2022 03:56 9,3 C 8,3 C 5,0 C 93 % 1003,9 hPa 0,0 l/m 0 min 0 min 0 W/m 16,1 km/h (3 Bft) 97,87 %
04.11.2022 03:58 9,3 C 8,3 C 5,0 C 93 % 1003,9 hPa 0,0 l/m 0 min 0 min 0 W/m 19,3 km/h (3 Bft) 100,00 %
04.11.2022 04:00 9,2 C 8,3 C 5,0 C 93 % 1003,8 hPa 0,0 l/m 0 min 0 min 0 W/m 12,9 km/h (3 Bft) 100,00 %
04.11.2022 04:02 9,2 C 8,3 C 5,0 C 93 % 1003,8 hPa 0,0 l/m 0 min 0 min 0 W/m 12,9 km/h (3 Bft) 92,86 %
04.11.2022 04:04 9,2 C 8,3 C 5,0 C 93 % 1003,8 hPa 0,0 l/m 0 min 0 min 0 W/m 16,1 km/h (3 Bft) 100,00 %
04.11.2022 04:06 9,2 C 8,3 C 5,0 C 93 % 1003,8 hPa 0,0 l/m 0 min 0 min 0 W/m 22,5 km/h (4 Bft) 95,74 %
04.11.2022 04:08 9,2 C 8,3 C 5,0 C 93 % 1003,8 hPa 0,0 l/m 0 min 0 min 0 W/m 6,4 km/h (2 Bft) 100,00 %
04.11.2022 04:10 9,1 C 8,3 C 5,0 C 93 % 1003,7 hPa 0,0 l/m 0 min 0 min 0 W/m 12,9 km/h (3 Bft) 100,00 %
04.11.2022 04:12 9,1 C 8,3 C 5,0 C 93 % 1003,8 hPa 0,0 l/m 0 min 0 min 0 W/m 16,1 km/h (3 Bft) 100,00 %
04.11.2022 04:14 9,1 C 8,3 C 5,0 C 93 % 1003,8 hPa 0,0 l/m 0 min 0 min 0 W/m 12,9 km/h (3 Bft) 100,00 %
04.11.2022 04:16 9,1 C 8,3 C 5,0 C 93 % 1003,8 hPa 0,0 l/m 0 min 0 min 0 W/m 16,1 km/h (3 Bft) 100,00 %
04.11.2022 04:18 9,1 C 8,3 C 5,0 C 93 % 1003,8 hPa 0,0 l/m 0 min 0 min 0 W/m 9,7 km/h (2 Bft) 100,00 %
04.11.2022 04:20 9,0 C 7,8 C 5,0 C 93 % 1003,8 hPa 0,0 l/m 0 min 0 min 0 W/m 9,7 km/h (2 Bft) 100,00 %
04.11.2022 04:22 9,0 C 7,8 C 5,0 C 93 % 1003,8 hPa 0,0 l/m 0 min 0 min 0 W/m 16,1 km/h (3 Bft) 100,00 %
04.11.2022 04:24 8,9 C 7,8 C 4,4 C 93 % 1003,7 hPa 0,0 l/m 0 min 0 min 0 W/m 12,9 km/h (3 Bft) 100,00 %
04.11.2022 04:26 8,9 C 7,8 C 4,4 C 93 % 1003,7 hPa 0,0 l/m 0 min 0 min 0 W/m 16,1 km/h (3 Bft) 97,87 %
04.11.2022 04:28 8,9 C 7,8 C 4,4 C 93 % 1003,7 hPa 0,0 l/m 0 min 0 min 0 W/m 9,7 km/h (2 Bft) 97,87 %
04.11.2022 04:30 8,9 C 7,8 C 4,4 C 93 % 1003,7 hPa 0,0 l/m 0 min 0 min 0 W/m 12,9 km/h (3 Bft) 100,00 %
04.11.2022 04:32 8,8 C 7,8 C 4,4 C 93 % 1003,8 hPa 0,0 l/m 0 min 0 min 0 W/m 12,9 km/h (3 Bft) 100,00 %
04.11.2022 04:34 8,8 C 7,8 C 4,4 C 93 % 1003,8 hPa 0,0 l/m 0 min 0 min 0 W/m 6,4 km/h (2 Bft) 100,00 %
04.11.2022 04:36 8,8 C 7,8 C 4,4 C 93 % 1003,8 hPa 0,0 l/m 0 min 0 min 0 W/m 6,4 km/h (2 Bft) 100,00 %
04.11.2022 04:38 8,8 C 7,8 C 4,4 C 93 % 1003,8 hPa 0,0 l/m 0 min 0 min 0 W/m 12,9 km/h (3 Bft) 97,87 %
04.11.2022 04:40 8,8 C 7,8 C 4,4 C 94 % 1003,9 hPa 0,0 l/m 0 min 0 min 0 W/m 6,4 km/h (2 Bft) 100,00 %
04.11.2022 04:42 8,7 C 7,8 C 4,4 C 93 % 1003,9 hPa 0,0 l/m 0 min 0 min 0 W/m 12,9 km/h (3 Bft) 100,00 %
04.11.2022 04:44 8,7 C 7,8 C 4,4 C 93 % 1004,0 hPa 0,0 l/m 0 min 0 min 0 W/m 16,1 km/h (3 Bft) 100,00 %
04.11.2022 04:46 8,7 C 7,8 C 4,4 C 93 % 1004,0 hPa 0,0 l/m 0 min 0 min 0 W/m 6,4 km/h (2 Bft) 100,00 %
04.11.2022 04:48 8,7 C 7,8 C 4,4 C 93 % 1004,0 hPa 0,0 l/m 0 min 0 min 0 W/m 9,7 km/h (2 Bft) 100,00 %
04.11.2022 04:50 8,7 C 7,8 C 4,4 C 93 % 1004,0 hPa 0,0 l/m 0 min 0 min 0 W/m 12,9 km/h (3 Bft) 97,87 %
04.11.2022 04:52 8,6 C 7,8 C 4,4 C 94 % 1004,0 hPa 0,0 l/m 0 min 0 min 0 W/m 6,4 km/h (2 Bft) 100,00 %
04.11.2022 04:54 8,6 C 7,8 C 4,4 C 94 % 1004,0 hPa 0,0 l/m 0 min 0 min 0 W/m 12,9 km/h (3 Bft) 100,00 %
04.11.2022 04:56 8,6 C 7,8 C 4,4 C 94 % 1004,0 hPa 0,0 l/m 0 min 0 min 0 W/m 12,9 km/h (3 Bft) 100,00 %
04.11.2022 04:58 8,6 C 7,8 C 4,4 C 94 % 1004,0 hPa 0,0 l/m 0 min 0 min 0 W/m 9,7 km/h (2 Bft) 97,87 %
04.11.2022 05:00 8,6 C 7,8 C 4,4 C 94 % 1003,9 hPa 0,0 l/m 0 min 0 min 0 W/m 12,9 km/h (3 Bft) 97,37 %
04.11.2022 05:02 8,6 C 7,8 C 4,4 C 94 % 1003,9 hPa 0,0 l/m 0 min 0 min 0 W/m 9,7 km/h (2 Bft) 97,87 %
04.11.2022 05:04 8,6 C 7,8 C 4,4 C 94 % 1003,9 hPa 0,0 l/m 0 min 0 min 0 W/m 12,9 km/h (3 Bft) 97,87 %
04.11.2022 05:06 8,5 C 7,8 C 4,4 C 94 % 1003,9 hPa 0,0 l/m 0 min 0 min 0 W/m 12,9 km/h (3 Bft) 97,87 %
04.11.2022 05:08 8,5 C 7,8 C 4,4 C 94 % 1003,9 hPa 0,0 l/m 0 min 0 min 0 W/m 9,7 km/h (2 Bft) 97,87 %
04.11.2022 05:10 8,5 C 7,8 C 4,4 C 94 % 1003,9 hPa 0,0 l/m 0 min 0 min 0 W/m 6,4 km/h (2 Bft) 95,74 %
04.11.2022 05:12 8,4 C 7,2 C 4,4 C 94 % 1003,9 hPa 0,0 l/m 0 min 0 min 0 W/m 9,7 km/h (2 Bft) 98,18 %
04.11.2022 05:14 8,4 C 7,2 C 4,4 C 94 % 1003,9 hPa 0,0 l/m 0 min 0 min 0 W/m 3,2 km/h (1 Bft) 97,87 %
04.11.2022 05:16 8,4 C 7,2 C 4,4 C 94 % 1003,9 hPa 0,0 l/m 0 min 0 min 0 W/m 3,2 km/h (1 Bft) 95,74 %
04.11.2022 05:18 8,4 C 7,2 C 4,4 C 94 % 1004,0 hPa 0,0 l/m 0 min 0 min 0 W/m 0,0 km/h (0 Bft) 97,37 %
04.11.2022 05:20 8,4 C 7,2 C 4,4 C 94 % 1004,0 hPa 0,0 l/m 0 min 0 min 0 W/m 3,2 km/h (1 Bft) 97,87 %
04.11.2022 05:22 8,3 C 7,2 C 4,4 C 94 % 1004,0 hPa 0,0 l/m 0 min 0 min 0 W/m 0,0 km/h (0 Bft) 97,87 %
04.11.2022 05:24 8,3 C 7,2 C 4,4 C 94 % 1004,0 hPa 0,0 l/m 0 min 0 min 0 W/m 0,0 km/h (0 Bft) 95,74 %
04.11.2022 05:26 8,3 C 7,2 C 4,4 C 94 % 1004,0 hPa 0,0 l/m 0 min 0 min 0 W/m 3,2 km/h (1 Bft) 93,62 %
04.11.2022 05:28 8,3 C 7,2 C 4,4 C 94 % 1004,0 hPa 0,0 l/m 0 min 0 min 0 W/m 3,2 km/h (1 Bft) 97,83 %
04.11.2022 05:30 8,3 C 7,2 C 4,4 C 94 % 1004,0 hPa 0,0 l/m 0 min 0 min 0 W/m 3,2 km/h (1 Bft) 97,87 %
04.11.2022 05:32 8,2 C 7,2 C 4,4 C 94 % 1003,9 hPa 0,0 l/m 0 min 0 min 0 W/m 0,0 km/h (0 Bft) 97,87 %
04.11.2022 05:34 8,2 C 7,2 C 4,4 C 94 % 1003,9 hPa 0,0 l/m 0 min 0 min 0 W/m 0,0 km/h (0 Bft) 97,87 %
04.11.2022 05:36 8,2 C 7,2 C 4,4 C 94 % 1004,0 hPa 0,0 l/m 0 min 0 min 0 W/m 3,2 km/h (1 Bft) 97,87 %
04.11.2022 05:38 8,2 C 7,2 C 4,4 C 94 % 1004,0 hPa 0,0 l/m 0 min 0 min 0 W/m 3,2 km/h (1 Bft) 95,74 %
04.11.2022 05:40 8,2 C 7,2 C 4,4 C 94 % 1004,1 hPa 0,0 l/m 0 min 0 min 0 W/m 3,2 km/h (1 Bft) 93,48 %
04.11.2022 05:42 8,1 C 7,2 C 4,4 C 94 % 1004,1 hPa 0,0 l/m 0 min 0 min 0 W/m 3,2 km/h (1 Bft) 94,55 %
04.11.2022 05:44 8,1 C 7,2 C 4,4 C 94 % 1004,2 hPa 0,0 l/m 0 min 0 min 0 W/m 3,2 km/h (1 Bft) 93,62 %
04.11.2022 05:46 8,1 C 7,2 C 4,4 C 94 % 1004,2 hPa 0,0 l/m 0 min 0 min 0 W/m 3,2 km/h (1 Bft) 95,74 %
04.11.2022 05:48 8,1 C 7,2 C 4,4 C 94 % 1004,3 hPa 0,0 l/m 0 min 0 min 0 W/m 3,2 km/h (1 Bft) 95,74 %
04.11.2022 05:50 8,1 C 7,2 C 4,4 C 94 % 1004,3 hPa 0,0 l/m 0 min 0 min 0 W/m 6,4 km/h (2 Bft) 95,74 %
04.11.2022 05:52 8,0 C 7,2 C 4,4 C 94 % 1004,3 hPa 0,0 l/m 0 min 0 min 0 W/m 6,4 km/h (2 Bft) 94,74 %
04.11.2022 05:54 8,0 C 6,7 C 3,9 C 94 % 1004,3 hPa 0,0 l/m 0 min 0 min 0 W/m 3,2 km/h (1 Bft) 93,62 %
04.11.2022 05:56 8,0 C 6,7 C 3,9 C 94 % 1004,3 hPa 0,0 l/m 0 min 0 min 0 W/m 3,2 km/h (1 Bft) 54,55 %
04.11.2022 05:58 7,9 C 6,7 C 3,9 C 94 % 1004,3 hPa 0,0 l/m 0 min 0 min 0 W/m 3,2 km/h (1 Bft) 95,74 %
04.11.2022 06:00 7,9 C 6,7 C 3,9 C 94 % 1004,3 hPa 0,0 l/m 0 min 0 min 0 W/m 3,2 km/h (1 Bft) 93,75 %
04.11.2022 06:02 7,9 C 6,7 C 3,9 C 94 % 1004,3 hPa 0,0 l/m 0 min 0 min 0 W/m 6,4 km/h (2 Bft) 95,74 %
04.11.2022 06:04 7,8 C 6,7 C 3,9 C 94 % 1004,3 hPa 0,0 l/m 0 min 0 min 0 W/m 3,2 km/h (1 Bft) 97,83 %
04.11.2022 06:08 7,8 C 6,7 C 3,9 C 94 % 1004,3 hPa 0,0 l/m 0 min 0 min 0 W/m 3,2 km/h (1 Bft) 96,74 %
04.11.2022 06:10 7,8 C 6,7 C 3,9 C 94 % 1004,3 hPa 0,0 l/m 0 min 0 min 0 W/m 3,2 km/h (1 Bft) 97,96 %
04.11.2022 06:12 7,7 C 6,7 C 3,9 C 94 % 1004,3 hPa 0,0 l/m 0 min 0 min 0 W/m 6,4 km/h (2 Bft) 97,87 %
04.11.2022 06:14 7,7 C 6,7 C 3,9 C 94 % 1004,3 hPa 0,0 l/m 0 min 0 min 0 W/m 0,0 km/h (0 Bft) 96,30 %
04.11.2022 06:16 7,7 C 6,7 C 3,9 C 94 % 1004,4 hPa 0,0 l/m 0 min 0 min 0 W/m 3,2 km/h (1 Bft) 100,00 %
04.11.2022 06:18 7,7 C 6,7 C 3,9 C 94 % 1004,4 hPa 0,0 l/m 0 min 0 min 0 W/m 6,4 km/h (2 Bft) 95,83 %
04.11.2022 06:20 7,7 C 6,7 C 3,9 C 94 % 1004,5 hPa 0,0 l/m 0 min 0 min 0 W/m 6,4 km/h (2 Bft) 97,87 %
04.11.2022 06:22 7,7 C 6,7 C 3,9 C 94 % 1004,4 hPa 0,0 l/m 0 min 0 min 0 W/m 6,4 km/h (2 Bft) 97,87 %
04.11.2022 06:24 7,6 C 6,7 C 3,9 C 94 % 1004,5 hPa 0,0 l/m 0 min 0 min 0 W/m 3,2 km/h (1 Bft) 97,87 %
04.11.2022 06:26 7,6 C 6,7 C 4,4 C 94 % 1004,5 hPa 0,0 l/m 0 min 0 min 0 W/m 3,2 km/h (1 Bft) 98,15 %
04.11.2022 06:28 7,6 C 6,7 C 4,4 C 94 % 1004,4 hPa 0,0 l/m 0 min 0 min 0 W/m 3,2 km/h (1 Bft) 97,37 %
04.11.2022 06:30 7,6 C 6,7 C 4,4 C 95 % 1004,4 hPa 0,0 l/m 0 min 0 min 0 W/m 3,2 km/h (1 Bft) 95,74 %
04.11.2022 06:32 7,6 C 6,7 C 4,4 C 95 % 1004,4 hPa 0,0 l/m 0 min 0 min 0 W/m 0,0 km/h (0 Bft) 97,92 %
04.11.2022 06:34 7,7 C 7,2 C 4,4 C 95 % 1004,4 hPa 0,0 l/m 0 min 0 min 0 W/m 6,4 km/h (2 Bft) 97,87 %
04.11.2022 06:36 7,7 C 7,2 C 4,4 C 95 % 1004,4 hPa 0,0 l/m 0 min 0 min 0 W/m 6,4 km/h (2 Bft) 97,87 %
04.11.2022 06:38 7,7 C 7,2 C 4,4 C 95 % 1004,4 hPa 0,0 l/m 0 min 0 min 0 W/m 6,4 km/h (2 Bft) 97,83 %
04.11.2022 06:40 7,7 C 7,2 C 4,4 C 95 % 1004,4 hPa 0,0 l/m 0 min 0 min 0 W/m 6,4 km/h (2 Bft) 100,00 %
04.11.2022 06:42 7,7 C 7,2 C 4,4 C 95 % 1004,4 hPa 0,0 l/m 0 min 0 min 0 W/m 6,4 km/h (2 Bft) 97,87 %
04.11.2022 06:44 7,7 C 7,2 C 4,4 C 95 % 1004,4 hPa 0,0 l/m 0 min 0 min 0 W/m 6,4 km/h (2 Bft) 98,15 %
04.11.2022 06:46 7,7 C 6,7 C 4,4 C 95 % 1004,4 hPa 0,0 l/m 0 min 0 min 0 W/m 0,0 km/h (0 Bft) 100,00 %
04.11.2022 06:48 7,7 C 6,7 C 4,4 C 95 % 1004,4 hPa 0,0 l/m 0 min 0 min 0 W/m 0,0 km/h (0 Bft) 97,96 %
04.11.2022 06:50 7,7 C 6,7 C 4,4 C 95 % 1004,5 hPa 0,0 l/m 0 min 0 min 0 W/m 3,2 km/h (1 Bft) 95,65 %
04.11.2022 06:52 7,7 C 6,7 C 4,4 C 95 % 1004,5 hPa 0,0 l/m 0 min 0 min 0 W/m 0,0 km/h (0 Bft) 93,62 %
04.11.2022 06:54 7,7 C 6,7 C 4,4 C 95 % 1004,5 hPa 0,0 l/m 0 min 0 min 0 W/m 0,0 km/h (0 Bft) 97,87 %
04.11.2022 06:56 7,7 C 6,7 C 4,4 C 95 % 1004,5 hPa 0,0 l/m 0 min 0 min 0 W/m 0,0 km/h (0 Bft) 98,15 %
04.11.2022 06:58 7,6 C 6,7 C 4,4 C 95 % 1004,5 hPa 0,0 l/m 0 min 0 min 0 W/m 0,0 km/h (0 Bft) 97,87 %
04.11.2022 07:00 7,6 C 6,7 C 4,4 C 95 % 1004,6 hPa 0,0 l/m 0 min 0 min 0 W/m 0,0 km/h (0 Bft) 95,74 %
04.11.2022 07:02 7,6 C 6,7 C 4,4 C 95 % 1004,5 hPa 0,0 l/m 0 min 0 min 0 W/m 0,0 km/h (0 Bft) 97,87 %
04.11.2022 07:04 7,6 C 6,7 C 3,9 C 95 % 1004,6 hPa 0,0 l/m 0 min 0 min 0 W/m 0,0 km/h (0 Bft) 97,37 %
04.11.2022 07:06 7,6 C 6,7 C 3,9 C 95 % 1004,6 hPa 0,0 l/m 0 min 0 min 0 W/m 0,0 km/h (0 Bft) 96,55 %
04.11.2022 07:08 7,6 C 6,7 C 3,9 C 95 % 1004,6 hPa 0,0 l/m 0 min 0 min 0 W/m 3,2 km/h (1 Bft) 97,14 %
04.11.2022 07:10 7,6 C 6,7 C 3,9 C 95 % 1004,7 hPa 0,0 l/m 0 min 0 min 0 W/m 0,0 km/h (0 Bft) 97,87 %
04.11.2022 07:12 7,6 C 6,7 C 3,9 C 95 % 1004,7 hPa 0,0 l/m 0 min 0 min 0 W/m 0,0 km/h (0 Bft) 97,87 %
04.11.2022 07:14 7,6 C 6,7 C 3,9 C 95 % 1004,7 hPa 0,0 l/m 0 min 0 min 0 W/m 0,0 km/h (0 Bft) 25,93 %
04.11.2022 07:16 7,5 C 6,7 C 3,9 C 95 % 1004,7 hPa 0,0 l/m 0 min 0 min 0 W/m 0,0 km/h (0 Bft) 100,00 %
04.11.2022 07:18 7,5 C 6,7 C 3,9 C 95 % 1004,7 hPa 0,0 l/m 0 min 0 min 0 W/m 0,0 km/h (0 Bft) 97,87 %
04.11.2022 07:20 7,5 C 6,7 C 3,9 C 95 % 1004,7 hPa 0,0 l/m 0 min 0 min 0 W/m 0,0 km/h (0 Bft) 100,00 %
04.11.2022 07:22 7,4 C 6,1 C 3,9 C 95 % 1004,7 hPa 0,0 l/m 0 min 0 min 0 W/m 0,0 km/h (0 Bft) 100,00 %
04.11.2022 07:24 7,4 C 6,1 C 3,9 C 95 % 1004,7 hPa 0,0 l/m 0 min 0 min 0 W/m 0,0 km/h (0 Bft) 100,00 %
04.11.2022 07:26 7,4 C 6,1 C 3,9 C 95 % 1004,8 hPa 0,0 l/m 0 min 0 min 0 W/m 0,0 km/h (0 Bft) 98,15 %
04.11.2022 07:28 7,4 C 6,1 C 3,9 C 95 % 1004,8 hPa 0,0 l/m 0 min 0 min 0 W/m 0,0 km/h (0 Bft) 97,37 %
04.11.2022 07:30 7,4 C 6,1 C 3,9 C 95 % 1004,8 hPa 0,0 l/m 0 min 0 min 0 W/m 0,0 km/h (0 Bft) 100,00 %
04.11.2022 07:32 7,4 C 6,1 C 3,9 C 95 % 1004,8 hPa 0,0 l/m 0 min 0 min 0 W/m 0,0 km/h (0 Bft) 100,00 %
04.11.2022 07:34 7,4 C 6,1 C 3,9 C 95 % 1004,8 hPa 0,0 l/m 0 min 0 min 0 W/m 0,0 km/h (0 Bft) 100,00 %
04.11.2022 07:36 7,3 C 6,1 C 3,9 C 95 % 1004,8 hPa 0,0 l/m 0 min 0 min 0 W/m 0,0 km/h (0 Bft) 98,28 %
04.11.2022 07:38 7,3 C 6,1 C 3,9 C 95 % 1004,8 hPa 0,0 l/m 0 min 0 min 0 W/m 0,0 km/h (0 Bft) 100,00 %
04.11.2022 07:40 7,3 C 6,1 C 3,9 C 95 % 1004,8 hPa 0,0 l/m 0 min 0 min 0 W/m 0,0 km/h (0 Bft) 97,87 %
04.11.2022 07:42 7,3 C 6,1 C 3,9 C 95 % 1004,9 hPa 0,0 l/m 0 min 0 min 0 W/m 0,0 km/h (0 Bft) 95,74 %
04.11.2022 07:44 7,3 C 6,1 C 3,9 C 95 % 1004,9 hPa 0,0 l/m 0 min 0 min 5 W/m 0,0 km/h (0 Bft) 97,87 %
04.11.2022 07:46 7,3 C 6,1 C 3,9 C 95 % 1004,9 hPa 0,0 l/m 0 min 0 min 5 W/m 0,0 km/h (0 Bft) 93,62 %
04.11.2022 07:48 7,3 C 6,1 C 3,9 C 95 % 1004,9 hPa 0,0 l/m 0 min 0 min 5 W/m 0,0 km/h (0 Bft) 91,30 %
04.11.2022 07:50 7,3 C 6,1 C 3,9 C 95 % 1005,0 hPa 0,0 l/m 0 min 0 min 5 W/m 0,0 km/h (0 Bft) 89,36 %
04.11.2022 07:52 7,3 C 6,1 C 3,9 C 95 % 1004,9 hPa 0,0 l/m 0 min 0 min 7 W/m 0,0 km/h (0 Bft) 96,30 %
04.11.2022 07:54 7,3 C 6,1 C 3,9 C 95 % 1005,0 hPa 0,0 l/m 0 min 0 min 7 W/m 3,2 km/h (1 Bft) 93,62 %
04.11.2022 07:56 7,2 C 6,1 C 3,9 C 95 % 1005,0 hPa 0,0 l/m 0 min 0 min 7 W/m 0,0 km/h (0 Bft) 95,74 %
04.11.2022 07:58 7,2 C 6,1 C 3,9 C 95 % 1005,0 hPa 0,0 l/m 0 min 0 min 7 W/m 3,2 km/h (1 Bft) 97,87 %
04.11.2022 08:00 7,2 C 6,1 C 3,9 C 95 % 1005,0 hPa 0,0 l/m 0 min 0 min 7 W/m 3,2 km/h (1 Bft) 93,62 %
04.11.2022 08:02 7,2 C 6,1 C 3,9 C 95 % 1005,0 hPa 0,0 l/m 0 min 0 min 8 W/m 0,0 km/h (0 Bft) 97,87 %
04.11.2022 08:04 7,2 C 6,1 C 3,9 C 95 % 1005,1 hPa 0,0 l/m 0 min 0 min 10 W/m 0,0 km/h (0 Bft) 93,48 %
04.11.2022 08:06 7,2 C 6,1 C 3,9 C 95 % 1005,1 hPa 0,0 l/m 0 min 0 min 11 W/m 0,0 km/h (0 Bft) 40,00 %
04.11.2022 08:08 7,2 C 6,7 C 3,9 C 95 % 1005,1 hPa 0,0 l/m 0 min 0 min 12 W/m 0,0 km/h (0 Bft) 71,43 %
04.11.2022 08:10 7,2 C 6,7 C 3,9 C 95 % 1005,2 hPa 0,0 l/m 0 min 0 min 12 W/m 0,0 km/h (0 Bft) 31,91 %
04.11.2022 08:12 7,2 C 6,7 C 3,9 C 95 % 1005,2 hPa 0,0 l/m 0 min 0 min 13 W/m 3,2 km/h (1 Bft) 39,58 %
04.11.2022 08:14 7,2 C 6,7 C 4,4 C 95 % 1005,2 hPa 0,0 l/m 0 min 0 min 14 W/m 3,2 km/h (1 Bft) 45,65 %
04.11.2022 08:16 7,2 C 6,7 C 4,4 C 95 % 1005,2 hPa 0,0 l/m 0 min 0 min 14 W/m 3,2 km/h (1 Bft) 88,89 %
04.11.2022 08:18 7,2 C 6,7 C 4,4 C 95 % 1005,2 hPa 0,0 l/m 0 min 0 min 15 W/m 3,2 km/h (1 Bft) 95,74 %
04.11.2022 08:20 7,3 C 7,2 C 4,4 C 95 % 1005,2 hPa 0,0 l/m 0 min 0 min 17 W/m 3,2 km/h (1 Bft) 68,42 %
04.11.2022 08:22 7,3 C 7,2 C 4,4 C 95 % 1005,3 hPa 0,0 l/m 0 min 0 min 18 W/m 6,4 km/h (2 Bft) 74,47 %
04.11.2022 08:24 7,3 C 7,2 C 4,4 C 95 % 1005,4 hPa 0,0 l/m 0 min 0 min 16 W/m 3,2 km/h (1 Bft) 74,47 %
04.11.2022 08:26 7,3 C 7,2 C 4,4 C 95 % 1005,4 hPa 0,0 l/m 0 min 0 min 13 W/m 3,2 km/h (1 Bft) 72,34 %
04.11.2022 08:28 7,4 C 7,2 C 4,4 C 96 % 1005,5 hPa 0,0 l/m 0 min 0 min 12 W/m 0,0 km/h (0 Bft) 43,59 %
04.11.2022 08:30 7,4 C 7,2 C 5,0 C 96 % 1005,5 hPa 0,0 l/m 0 min 0 min 14 W/m 3,2 km/h (1 Bft) 95,74 %
04.11.2022 08:32 7,5 C 7,2 C 5,0 C 96 % 1005,5 hPa 0,0 l/m 0 min 0 min 14 W/m 3,2 km/h (1 Bft) 93,62 %
04.11.2022 08:34 7,5 C 7,2 C 5,0 C 96 % 1005,5 hPa 0,0 l/m 0 min 0 min 16 W/m 3,2 km/h (1 Bft) 95,74 %
04.11.2022 08:36 7,6 C 7,2 C 5,0 C 96 % 1005,6 hPa 0,0 l/m 0 min 0 min 18 W/m 3,2 km/h (1 Bft) 97,83 %
04.11.2022 08:38 7,6 C 7,8 C 5,0 C 96 % 1005,6 hPa 0,0 l/m 0 min 0 min 21 W/m 6,4 km/h (2 Bft) 97,87 %
04.11.2022 08:40 7,7 C 7,8 C 5,0 C 96 % 1005,6 hPa 0,0 l/m 0 min 0 min 24 W/m 3,2 km/h (1 Bft) 95,74 %
04.11.2022 08:42 7,7 C 7,8 C 5,0 C 96 % 1005,6 hPa 0,0 l/m 0 min 0 min 26 W/m 0,0 km/h (0 Bft) 97,87 %
04.11.2022 08:44 7,7 C 7,8 C 5,0 C 96 % 1005,6 hPa 0,0 l/m 0 min 0 min 29 W/m 0,0 km/h (0 Bft) 97,87 %
04.11.2022 08:46 7,8 C 7,8 C 5,0 C 96 % 1005,6 hPa 0,0 l/m 0 min 0 min 32 W/m 0,0 km/h (0 Bft) 95,65 %
04.11.2022 08:48 7,8 C 7,8 C 5,0 C 96 % 1005,6 hPa 0,0 l/m 0 min 0 min 32 W/m 6,4 km/h (2 Bft) 98,18 %
04.11.2022 08:50 7,9 C 7,8 C 5,0 C 96 % 1005,7 hPa 0,0 l/m 0 min 2 min 30 W/m 3,2 km/h (1 Bft) 95,65 %
04.11.2022 08:52 7,9 C 7,8 C 5,0 C 96 % 1005,7 hPa 0,0 l/m 0 min 2 min 31 W/m 3,2 km/h (1 Bft) 97,87 %
04.11.2022 08:54 7,9 C 7,8 C 5,0 C 96 % 1005,8 hPa 0,2 l/m 0 min 0 min 33 W/m 3,2 km/h (1 Bft) 97,37 %
04.11.2022 08:56 8,0 C 7,8 C 5,0 C 96 % 1005,8 hPa 0,0 l/m 0 min 0 min 35 W/m 6,4 km/h (2 Bft) 97,87 %
04.11.2022 08:58 8,1 C 7,8 C 5,0 C 96 % 1005,8 hPa 0,0 l/m 0 min 0 min 39 W/m 6,4 km/h (2 Bft) 95,74 %
04.11.2022 09:00 8,1 C 7,8 C 5,0 C 96 % 1005,9 hPa 0,0 l/m 0 min 0 min 45 W/m 12,9 km/h (3 Bft) 97,87 %
04.11.2022 09:02 8,1 C 8,3 C 5,0 C 96 % 1005,9 hPa 0,0 l/m 0 min 0 min 49 W/m 16,1 km/h (3 Bft) 97,87 %
04.11.2022 09:04 8,2 C 8,3 C 5,0 C 96 % 1005,9 hPa 0,0 l/m 0 min 0 min 51 W/m 6,4 km/h (2 Bft) 95,65 %
04.11.2022 09:06 8,2 C 8,3 C 5,6 C 96 % 1006,0 hPa 0,0 l/m 0 min 0 min 51 W/m 6,4 km/h (2 Bft) 96,61 %
04.11.2022 09:08 8,2 C 8,3 C 5,6 C 96 % 1006,0 hPa 0,0 l/m 0 min 0 min 49 W/m 6,4 km/h (2 Bft) 97,14 %
04.11.2022 09:10 8,3 C 8,3 C 5,6 C 96 % 1006,1 hPa 0,0 l/m 0 min 0 min 49 W/m 12,9 km/h (3 Bft) 95,74 %
04.11.2022 09:12 8,3 C 8,3 C 5,6 C 96 % 1006,2 hPa 0,0 l/m 0 min 0 min 49 W/m 6,4 km/h (2 Bft) 93,75 %
04.11.2022 09:14 8,3 C 8,3 C 5,6 C 96 % 1006,1 hPa 0,0 l/m 0 min 0 min 49 W/m 6,4 km/h (2 Bft) 95,74 %
04.11.2022 09:16 8,4 C 8,3 C 5,6 C 96 % 1006,2 hPa 0,0 l/m 0 min 0 min 53 W/m 6,4 km/h (2 Bft) 97,87 %
04.11.2022 09:18 8,4 C 8,3 C 5,6 C 96 % 1006,1 hPa 0,0 l/m 0 min 0 min 62 W/m 9,7 km/h (2 Bft) 97,87 %
04.11.2022 09:20 8,5 C 8,3 C 5,6 C 96 % 1006,1 hPa 0,0 l/m 0 min 0 min 67 W/m 6,4 km/h (2 Bft) 97,87 %
04.11.2022 09:22 8,6 C 8,3 C 5,6 C 96 % 1006,0 hPa 0,0 l/m 0 min 0 min 64 W/m 6,4 km/h (2 Bft) 98,15 %
04.11.2022 09:24 8,6 C 8,9 C 5,6 C 96 % 1006,1 hPa 0,0 l/m 0 min 0 min 59 W/m 6,4 km/h (2 Bft) 97,37 %
04.11.2022 09:26 8,6 C 8,9 C 5,6 C 96 % 1006,1 hPa 0,0 l/m 0 min 0 min 56 W/m 6,4 km/h (2 Bft) 97,92 %
04.11.2022 09:28 8,7 C 8,9 C 5,6 C 96 % 1006,1 hPa 0,0 l/m 0 min 0 min 59 W/m 6,4 km/h (2 Bft) 97,83 %
04.11.2022 09:30 8,7 C 8,9 C 5,6 C 96 % 1006,2 hPa 0,0 l/m 0 min 0 min 59 W/m 6,4 km/h (2 Bft) 97,87 %
04.11.2022 09:32 8,7 C 8,9 C 5,6 C 96 % 1006,2 hPa 0,0 l/m 0 min 0 min 52 W/m 12,9 km/h (3 Bft) 97,87 %
04.11.2022 09:34 8,7 C 8,9 C 5,6 C 96 % 1006,2 hPa 0,0 l/m 0 min 0 min 46 W/m 12,9 km/h (3 Bft) 96,30 %
04.11.2022 09:36 8,8 C 8,9 C 5,6 C 96 % 1006,2 hPa 0,0 l/m 0 min 0 min 48 W/m 12,9 km/h (3 Bft) 97,96 %
04.11.2022 09:38 8,8 C 8,9 C 5,6 C 96 % 1006,3 hPa 0,0 l/m 0 min 0 min 41 W/m 6,4 km/h (2 Bft) 97,22 %
04.11.2022 09:40 8,8 C 8,9 C 5,6 C 96 % 1006,2 hPa 0,0 l/m 0 min 0 min 40 W/m 6,4 km/h (2 Bft) 97,87 %
04.11.2022 09:42 8,8 C 8,9 C 5,6 C 96 % 1006,2 hPa 0,0 l/m 0 min 0 min 40 W/m 12,9 km/h (3 Bft) 97,92 %
04.11.2022 09:44 8,8 C 8,9 C 5,6 C 96 % 1006,2 hPa 0,0 l/m 0 min 0 min 40 W/m 6,4 km/h (2 Bft) 95,74 %
04.11.2022 09:46 8,9 C 8,9 C 5,6 C 96 % 1006,2 hPa 0,0 l/m 0 min 0 min 39 W/m 6,4 km/h (2 Bft) 93,48 %
04.11.2022 09:48 8,9 C 8,9 C 5,6 C 96 % 1006,2 hPa 0,0 l/m 0 min 0 min 38 W/m 6,4 km/h (2 Bft) 98,18 %
04.11.2022 09:50 8,9 C 8,9 C 5,6 C 96 % 1006,2 hPa 0,0 l/m 0 min 0 min 41 W/m 6,4 km/h (2 Bft) 97,87 %
04.11.2022 09:52 8,9 C 8,9 C 6,1 C 96 % 1006,2 hPa 0,0 l/m 0 min 0 min 45 W/m 3,2 km/h (1 Bft) 100,00 %
04.11.2022 09:54 8,9 C 8,9 C 6,1 C 96 % 1006,3 hPa 0,0 l/m 0 min 0 min 50 W/m 9,7 km/h (2 Bft) 97,87 %
04.11.2022 09:56 8,9 C 8,9 C 6,1 C 95 % 1006,3 hPa 0,0 l/m 0 min 2 min 51 W/m 6,4 km/h (2 Bft) 100,00 %
04.11.2022 09:58 8,9 C 8,9 C 6,1 C 95 % 1006,3 hPa 0,0 l/m 0 min 0 min 53 W/m 6,4 km/h (2 Bft) 100,00 %
04.11.2022 10:00 8,9 C 8,9 C 6,1 C 95 % 1006,3 hPa 0,0 l/m 0 min 0 min 60 W/m 3,2 km/h (1 Bft) 95,74 %
04.11.2022 10:02 9,0 C 8,9 C 6,1 C 95 % 1006,3 hPa 0,0 l/m 0 min 0 min 70 W/m 3,2 km/h (1 Bft) 95,74 %
04.11.2022 10:04 9,0 C 8,9 C 6,1 C 95 % 1006,3 hPa 0,0 l/m 0 min 0 min 77 W/m 6,4 km/h (2 Bft) 97,87 %
04.11.2022 10:06 9,1 C 9,4 C 6,1 C 95 % 1006,3 hPa 0,0 l/m 0 min 0 min 81 W/m 3,2 km/h (1 Bft) 96,36 %
04.11.2022 10:08 9,1 C 9,4 C 6,1 C 95 % 1006,4 hPa 0,0 l/m 0 min 0 min 83 W/m 3,2 km/h (1 Bft) 95,74 %
04.11.2022 10:10 9,1 C 9,4 C 6,1 C 95 % 1006,4 hPa 0,0 l/m 0 min 0 min 88 W/m 6,4 km/h (2 Bft) 95,65 %
04.11.2022 10:12 9,1 C 9,4 C 6,1 C 95 % 1006,4 hPa 0,0 l/m 0 min 0 min 95 W/m 9,7 km/h (2 Bft) 93,62 %
04.11.2022 10:14 9,2 C 9,4 C 6,7 C 95 % 1006,4 hPa 0,0 l/m 0 min 0 min 106 W/m 3,2 km/h (1 Bft) 93,62 %
04.11.2022 10:16 9,2 C 9,4 C 6,7 C 95 % 1006,5 hPa 0,0 l/m 0 min 0 min 115 W/m 6,4 km/h (2 Bft) 97,37 %
04.11.2022 10:18 9,3 C 9,4 C 6,7 C 95 % 1006,4 hPa 0,0 l/m 0 min 0 min 118 W/m 3,2 km/h (1 Bft) 97,87 %
04.11.2022 10:20 9,3 C 9,4 C 6,7 C 95 % 1006,4 hPa 0,0 l/m 0 min 0 min 118 W/m 12,9 km/h (3 Bft) 95,74 %
04.11.2022 10:22 9,3 C 10,0 C 6,7 C 95 % 1006,4 hPa 0,0 l/m 0 min 0 min 116 W/m 3,2 km/h (1 Bft) 95,74 %
04.11.2022 10:24 9,3 C 10,0 C 6,7 C 95 % 1006,3 hPa 0,0 l/m 0 min 0 min 109 W/m 6,4 km/h (2 Bft) 95,65 %
04.11.2022 10:26 9,4 C 10,0 C 6,7 C 95 % 1006,4 hPa 0,0 l/m 0 min 0 min 102 W/m 6,4 km/h (2 Bft) 93,62 %
04.11.2022 10:28 9,4 C 10,0 C 6,7 C 95 % 1006,4 hPa 0,0 l/m 0 min 0 min 93 W/m 12,9 km/h (3 Bft) 95,83 %
04.11.2022 10:30 9,4 C 9,4 C 6,7 C 95 % 1006,4 hPa 0,0 l/m 0 min 0 min 87 W/m 6,4 km/h (2 Bft) 95,74 %
04.11.2022 10:32 9,5 C 9,4 C 6,7 C 95 % 1006,4 hPa 0,0 l/m 0 min 0 min 91 W/m 3,2 km/h (1 Bft) 95,65 %
04.11.2022 10:34 9,5 C 10,0 C 6,7 C 95 % 1006,4 hPa 0,0 l/m 0 min 0 min 103 W/m 9,7 km/h (2 Bft) 94,55 %
04.11.2022 10:36 9,6 C 10,0 C 6,7 C 95 % 1006,5 hPa 0,0 l/m 0 min 0 min 130 W/m 3,2 km/h (1 Bft) 96,00 %
04.11.2022 10:38 9,6 C 10,0 C 6,7 C 95 % 1006,5 hPa 0,0 l/m 0 min 0 min 144 W/m 6,4 km/h (2 Bft) 94,29 %
04.11.2022 10:40 9,6 C 10,6 C 6,7 C 95 % 1006,5 hPa 0,0 l/m 0 min 0 min 149 W/m 6,4 km/h (2 Bft) 95,74 %
04.11.2022 10:42 9,7 C 10,6 C 7,2 C 95 % 1006,5 hPa 0,0 l/m 0 min 0 min 139 W/m 9,7 km/h (2 Bft) 95,83 %
04.11.2022 10:44 9,7 C 10,6 C 7,2 C 95 % 1006,5 hPa 0,0 l/m 0 min 0 min 121 W/m 3,2 km/h (1 Bft) 95,65 %
04.11.2022 10:46 9,8 C 10,6 C 7,2 C 95 % 1006,5 hPa 0,0 l/m 0 min 0 min 107 W/m 6,4 km/h (2 Bft) 97,87 %
04.11.2022 10:48 9,8 C 10,6 C 7,2 C 95 % 1006,5 hPa 0,0 l/m 0 min 0 min 103 W/m 3,2 km/h (1 Bft) 98,18 %
04.11.2022 10:50 9,8 C 10,6 C 7,2 C 95 % 1006,6 hPa 0,0 l/m 0 min 0 min 110 W/m 6,4 km/h (2 Bft) 97,87 %
04.11.2022 10:52 9,9 C 10,6 C 7,2 C 94 % 1006,5 hPa 0,0 l/m 0 min 0 min 108 W/m 6,4 km/h (2 Bft) 97,37 %
04.11.2022 10:54 9,9 C 10,6 C 7,2 C 94 % 1006,4 hPa 0,0 l/m 0 min 0 min 97 W/m 6,4 km/h (2 Bft) 97,87 %
04.11.2022 10:56 9,9 C 10,6 C 7,2 C 94 % 1006,4 hPa 0,0 l/m 0 min 0 min 87 W/m 3,2 km/h (1 Bft) 97,87 %
04.11.2022 10:58 9,9 C 10,6 C 7,2 C 94 % 1006,4 hPa 0,0 l/m 0 min 0 min 78 W/m 3,2 km/h (1 Bft) 100,00 %
04.11.2022 11:00 10,0 C 10,6 C 7,2 C 94 % 1006,4 hPa 0,0 l/m 0 min 0 min 78 W/m 0,0 km/h (0 Bft) 97,87 %
04.11.2022 11:02 10,0 C 10,6 C 7,2 C 94 % 1006,4 hPa 0,0 l/m 0 min 0 min 81 W/m 6,4 km/h (2 Bft) 100,00 %
04.11.2022 11:04 10,1 C 10,6 C 7,2 C 94 % 1006,4 hPa 0,0 l/m 0 min 0 min 73 W/m 3,2 km/h (1 Bft) 97,87 %
04.11.2022 11:06 10,1 C 10,6 C 7,2 C 94 % 1006,5 hPa 0,0 l/m 0 min 0 min 69 W/m 3,2 km/h (1 Bft) 96,36 %
04.11.2022 11:08 10,1 C 10,6 C 7,2 C 94 % 1006,6 hPa 0,0 l/m 0 min 0 min 69 W/m 0,0 km/h (0 Bft) 100,00 %
04.11.2022 11:10 10,1 C 10,6 C 7,2 C 94 % 1006,6 hPa 0,0 l/m 0 min 0 min 72 W/m 0,0 km/h (0 Bft) 100,00 %
04.11.2022 11:12 10,1 C 10,6 C 7,2 C 94 % 1006,6 hPa 0,0 l/m 0 min 0 min 78 W/m 0,0 km/h (0 Bft) 100,00 %
04.11.2022 11:14 10,1 C 10,6 C 7,2 C 94 % 1006,6 hPa 0,0 l/m 0 min 0 min 85 W/m 0,0 km/h (0 Bft) 97,87 %
04.11.2022 11:16 10,2 C 10,6 C 7,2 C 94 % 1006,7 hPa 0,0 l/m 0 min 0 min 87 W/m 0,0 km/h (0 Bft) 100,00 %
04.11.2022 11:18 10,2 C 10,6 C 7,2 C 94 % 1006,7 hPa 0,0 l/m 0 min 0 min 93 W/m 3,2 km/h (1 Bft) 100,00 %
04.11.2022 11:20 10,2 C 10,6 C 7,2 C 94 % 1006,7 hPa 0,0 l/m 0 min 0 min 97 W/m 0,0 km/h (0 Bft) 100,00 %
04.11.2022 11:22 10,2 C 11,1 C 7,2 C 94 % 1006,7 hPa 0,0 l/m 0 min 0 min 88 W/m 0,0 km/h (0 Bft) 100,00 %
04.11.2022 11:24 10,2 C 11,1 C 7,2 C 94 % 1006,7 hPa 0,0 l/m 0 min 0 min 75 W/m 0,0 km/h (0 Bft) 100,00 %
04.11.2022 11:26 10,3 C 10,6 C 7,2 C 94 % 1006,6 hPa 0,0 l/m 0 min 0 min 70 W/m 0,0 km/h (0 Bft) 100,00 %
04.11.2022 11:28 10,3 C 11,1 C 7,2 C 94 % 1006,6 hPa 0,0 l/m 0 min 0 min 72 W/m 0,0 km/h (0 Bft) 100,00 %
04.11.2022 11:30 10,3 C 11,1 C 7,2 C 93 % 1006,6 hPa 0,0 l/m 0 min 0 min 74 W/m 0,0 km/h (0 Bft) 100,00 %
04.11.2022 11:32 10,3 C 11,1 C 7,2 C 93 % 1006,6 hPa 0,0 l/m 0 min 0 min 76 W/m 0,0 km/h (0 Bft) 97,87 %
04.11.2022 11:34 10,3 C 11,1 C 7,2 C 93 % 1006,6 hPa 0,0 l/m 0 min 0 min 73 W/m 0,0 km/h (0 Bft) 100,00 %
04.11.2022 11:36 10,3 C 11,1 C 7,2 C 93 % 1006,5 hPa 0,0 l/m 0 min 0 min 70 W/m 0,0 km/h (0 Bft) 100,00 %
04.11.2022 11:38 10,3 C 10,6 C 7,2 C 93 % 1006,5 hPa 0,0 l/m 0 min 0 min 70 W/m 0,0 km/h (0 Bft) 100,00 %
04.11.2022 11:40 10,4 C 10,6 C 7,2 C 93 % 1006,7 hPa 0,0 l/m 0 min 0 min 74 W/m 3,2 km/h (1 Bft) 100,00 %
04.11.2022 11:42 10,4 C 11,1 C 7,2 C 93 % 1006,7 hPa 0,0 l/m 0 min 0 min 87 W/m 0,0 km/h (0 Bft) 100,00 %
04.11.2022 11:44 10,4 C 11,1 C 7,2 C 93 % 1006,8 hPa 0,0 l/m 0 min 0 min 116 W/m 0,0 km/h (0 Bft) 100,00 %
04.11.2022 11:46 10,4 C 11,1 C 7,8 C 93 % 1006,8 hPa 0,0 l/m 0 min 0 min 138 W/m 0,0 km/h (0 Bft) 100,00 %
04.11.2022 11:48 10,5 C 11,7 C 7,8 C 93 % 1006,8 hPa 0,0 l/m 0 min 0 min 137 W/m 3,2 km/h (1 Bft) 97,87 %
04.11.2022 11:50 10,6 C 11,7 C 7,8 C 93 % 1006,8 hPa 0,0 l/m 0 min 0 min 128 W/m 3,2 km/h (1 Bft) 97,87 %
04.11.2022 11:52 10,7 C 12,2 C 7,8 C 93 % 1006,8 hPa 0,0 l/m 0 min 0 min 112 W/m 3,2 km/h (1 Bft) 97,87 %
04.11.2022 11:54 10,7 C 12,2 C 7,8 C 92 % 1006,8 hPa 0,0 l/m 0 min 0 min 97 W/m 3,2 km/h (1 Bft) 97,83 %
04.11.2022 11:56 10,8 C 12,2 C 7,8 C 92 % 1006,8 hPa 0,0 l/m 0 min 0 min 97 W/m 0,0 km/h (0 Bft) 97,87 %
04.11.2022 11:58 10,8 C 12,2 C 7,8 C 92 % 1006,9 hPa 0,0 l/m 0 min 0 min 112 W/m 3,2 km/h (1 Bft) 97,87 %
04.11.2022 12:00 10,9 C 12,2 C 7,8 C 92 % 1006,9 hPa 0,0 l/m 0 min 0 min 132 W/m 3,2 km/h (1 Bft) 95,74 %
04.11.2022 12:02 11,0 C 12,2 C 7,8 C 92 % 1006,9 hPa 0,0 l/m 0 min 0 min 157 W/m 6,4 km/h (2 Bft) 97,87 %
04.11.2022 12:04 11,1 C 12,2 C 8,3 C 92 % 1007,0 hPa 0,0 l/m 0 min 0 min 178 W/m 9,7 km/h (2 Bft) 95,74 %
04.11.2022 12:08 11,2 C 12,8 C 8,3 C 91 % 1007,0 hPa 0,0 l/m 0 min 0 min 190 W/m 6,4 km/h (2 Bft) 98,00 %
04.11.2022 12:10 11,3 C 12,8 C 8,3 C 91 % 1007,0 hPa 0,0 l/m 2 min 0 min 198 W/m 3,2 km/h (1 Bft) 95,74 %
04.11.2022 12:12 11,3 C 12,8 C 8,3 C 91 % 1007,1 hPa 0,0 l/m 0 min 0 min 194 W/m 6,4 km/h (2 Bft) 95,74 %
04.11.2022 12:14 11,4 C 12,8 C 8,3 C 90 % 1007,1 hPa 0,0 l/m 0 min 0 min 184 W/m 3,2 km/h (1 Bft) 95,74 %
04.11.2022 12:16 11,5 C 12,8 C 8,3 C 90 % 1007,1 hPa 0,0 l/m 0 min 0 min 171 W/m 3,2 km/h (1 Bft) 97,87 %
04.11.2022 12:18 11,6 C 12,8 C 8,3 C 89 % 1007,1 hPa 0,0 l/m 0 min 0 min 158 W/m 0,0 km/h (0 Bft) 97,87 %
04.11.2022 12:20 11,6 C 12,2 C 8,3 C 89 % 1007,2 hPa 0,0 l/m 0 min 0 min 139 W/m 3,2 km/h (1 Bft) 93,62 %
04.11.2022 12:22 11,7 C 12,2 C 8,3 C 89 % 1007,2 hPa 0,0 l/m 0 min 0 min 114 W/m 3,2 km/h (1 Bft) 95,65 %
04.11.2022 12:24 11,8 C 12,2 C 8,3 C 88 % 1007,2 hPa 0,0 l/m 0 min 0 min 93 W/m 6,4 km/h (2 Bft) 97,87 %
04.11.2022 12:26 11,8 C 12,2 C 8,3 C 88 % 1007,3 hPa 0,0 l/m 0 min 0 min 82 W/m 6,4 km/h (2 Bft) 93,62 %
04.11.2022 12:28 11,8 C 11,7 C 8,3 C 88 % 1007,3 hPa 0,0 l/m 0 min 0 min 79 W/m 3,2 km/h (1 Bft) 95,74 %
04.11.2022 12:30 11,8 C 11,7 C 8,3 C 87 % 1007,3 hPa 0,0 l/m 0 min 0 min 80 W/m 3,2 km/h (1 Bft) 93,62 %
04.11.2022 12:32 11,8 C 11,7 C 8,3 C 87 % 1007,3 hPa 0,0 l/m 0 min 0 min 82 W/m 0,0 km/h (0 Bft) 95,65 %
04.11.2022 12:34 11,8 C 11,7 C 8,3 C 87 % 1007,3 hPa 0,0 l/m 0 min 0 min 81 W/m 0,0 km/h (0 Bft) 97,87 %
04.11.2022 12:36 11,9 C 11,7 C 8,3 C 87 % 1007,3 hPa 0,0 l/m 0 min 0 min 78 W/m 0,0 km/h (0 Bft) 97,87 %
04.11.2022 12:38 11,9 C 11,7 C 8,3 C 87 % 1007,3 hPa 0,0 l/m 0 min 0 min 76 W/m 0,0 km/h (0 Bft) 97,87 %
04.11.2022 12:40 11,9 C 11,7 C 8,3 C 87 % 1007,4 hPa 0,0 l/m 0 min 0 min 75 W/m 3,2 km/h (1 Bft) 93,62 %
04.11.2022 12:42 11,9 C 11,7 C 8,3 C 87 % 1007,4 hPa 0,0 l/m 0 min 0 min 72 W/m 3,2 km/h (1 Bft) 95,74 %
04.11.2022 12:44 11,9 C 11,7 C 8,3 C 87 % 1007,4 hPa 0,0 l/m 0 min 0 min 66 W/m 6,4 km/h (2 Bft) 97,83 %
04.11.2022 12:46 11,9 C 11,7 C 8,3 C 87 % 1007,5 hPa 0,0 l/m 0 min 0 min 63 W/m 3,2 km/h (1 Bft) 97,87 %
04.11.2022 12:48 11,9 C 11,7 C 8,3 C 87 % 1007,5 hPa 0,0 l/m 0 min 0 min 64 W/m 0,0 km/h (0 Bft) 97,87 %
04.11.2022 12:50 11,9 C 11,7 C 7,8 C 87 % 1007,5 hPa 0,0 l/m 0 min 0 min 69 W/m 0,0 km/h (0 Bft) 95,74 %
04.11.2022 12:52 11,9 C 11,7 C 7,8 C 87 % 1007,5 hPa 0,0 l/m 0 min 0 min 74 W/m 0,0 km/h (0 Bft) 93,62 %
04.11.2022 12:54 12,0 C 11,7 C 8,3 C 87 % 1007,5 hPa 0,0 l/m 0 min 0 min 82 W/m 3,2 km/h (1 Bft) 95,74 %
04.11.2022 12:56 12,0 C 11,7 C 8,3 C 87 % 1007,5 hPa 0,0 l/m 0 min 0 min 94 W/m 3,2 km/h (1 Bft) 95,65 %
04.11.2022 12:58 12,0 C 12,2 C 8,3 C 87 % 1007,6 hPa 0,0 l/m 0 min 0 min 114 W/m 0,0 km/h (0 Bft) 95,74 %
04.11.2022 13:00 12,1 C 12,2 C 8,3 C 87 % 1007,5 hPa 0,0 l/m 0 min 0 min 141 W/m 6,4 km/h (2 Bft) 91,49 %
04.11.2022 13:02 12,1 C 12,8 C 8,3 C 87 % 1007,5 hPa 0,0 l/m 0 min 0 min 166 W/m 6,4 km/h (2 Bft) 97,87 %
04.11.2022 13:04 12,1 C 12,8 C 8,3 C 87 % 1007,5 hPa 0,0 l/m 0 min 0 min 173 W/m 6,4 km/h (2 Bft) 97,87 %
04.11.2022 13:06 12,1 C 12,8 C 8,3 C 87 % 1007,4 hPa 0,0 l/m 0 min 0 min 171 W/m 6,4 km/h (2 Bft) 97,87 %
04.11.2022 13:08 12,1 C 12,8 C 8,3 C 86 % 1007,5 hPa 0,0 l/m 0 min 0 min 164 W/m 6,4 km/h (2 Bft) 97,83 %
04.11.2022 13:10 12,1 C 12,8 C 8,3 C 86 % 1007,4 hPa 0,0 l/m 0 min 0 min 159 W/m 6,4 km/h (2 Bft) 97,87 %
04.11.2022 13:12 12,2 C 12,8 C 8,3 C 86 % 1007,4 hPa 0,0 l/m 0 min 0 min 149 W/m 3,2 km/h (1 Bft) 97,87 %
04.11.2022 13:14 12,2 C 12,8 C 8,3 C 86 % 1007,5 hPa 0,0 l/m 0 min 0 min 138 W/m 3,2 km/h (1 Bft) 97,87 %
04.11.2022 13:16 12,2 C 12,8 C 8,9 C 86 % 1007,5 hPa 0,0 l/m 0 min 0 min 128 W/m 0,0 km/h (0 Bft) 97,87 %
04.11.2022 13:18 12,2 C 12,8 C 8,9 C 86 % 1007,5 hPa 0,0 l/m 0 min 0 min 119 W/m 6,4 km/h (2 Bft) 95,74 %
04.11.2022 13:20 12,2 C 12,2 C 8,9 C 85 % 1007,5 hPa 0,0 l/m 0 min 0 min 112 W/m 3,2 km/h (1 Bft) 97,83 %
04.11.2022 13:22 12,2 C 12,2 C 8,9 C 85 % 1007,5 hPa 0,0 l/m 0 min 0 min 103 W/m 3,2 km/h (1 Bft) 97,87 %
04.11.2022 13:24 12,3 C 12,2 C 8,9 C 85 % 1007,6 hPa 0,0 l/m 0 min 0 min 102 W/m 0,0 km/h (0 Bft) 97,87 %
04.11.2022 13:26 12,3 C 12,2 C 8,9 C 85 % 1007,5 hPa 0,0 l/m 0 min 0 min 109 W/m 3,2 km/h (1 Bft) 97,87 %
04.11.2022 13:28 12,3 C 12,2 C 8,9 C 85 % 1007,5 hPa 0,0 l/m 0 min 0 min 117 W/m 6,4 km/h (2 Bft) 97,87 %
04.11.2022 13:30 12,3 C 12,2 C 8,3 C 85 % 1007,5 hPa 0,0 l/m 0 min 0 min 114 W/m 3,2 km/h (1 Bft) 95,74 %
04.11.2022 13:32 12,3 C 12,2 C 8,3 C 85 % 1007,4 hPa 0,0 l/m 0 min 0 min 111 W/m 3,2 km/h (1 Bft) 95,65 %
04.11.2022 13:34 12,3 C 12,2 C 8,3 C 85 % 1007,5 hPa 0,0 l/m 0 min 0 min 111 W/m 3,2 km/h (1 Bft) 97,87 %
04.11.2022 13:36 12,3 C 12,2 C 8,3 C 85 % 1007,5 hPa 0,0 l/m 0 min 0 min 110 W/m 6,4 km/h (2 Bft) 97,87 %
04.11.2022 13:38 12,3 C 12,2 C 8,3 C 85 % 1007,5 hPa 0,0 l/m 0 min 0 min 107 W/m 0,0 km/h (0 Bft) 95,74 %
04.11.2022 13:40 12,3 C 12,2 C 8,3 C 85 % 1007,5 hPa 0,0 l/m 0 min 0 min 104 W/m 0,0 km/h (0 Bft) 97,87 %
04.11.2022 13:42 12,3 C 12,2 C 8,3 C 85 % 1007,5 hPa 0,0 l/m 0 min 0 min 101 W/m 3,2 km/h (1 Bft) 100,00 %
04.11.2022 13:44 12,3 C 12,2 C 8,3 C 85 % 1007,6 hPa 0,0 l/m 0 min 0 min 101 W/m 3,2 km/h (1 Bft) 100,00 %
04.11.2022 13:46 12,4 C 12,2 C 8,3 C 85 % 1007,5 hPa 0,0 l/m 0 min 0 min 106 W/m 3,2 km/h (1 Bft) 100,00 %
04.11.2022 13:48 12,4 C 12,2 C 8,3 C 85 % 1007,5 hPa 0,0 l/m 0 min 0 min 111 W/m 3,2 km/h (1 Bft) 100,00 %
04.11.2022 13:50 12,4 C 12,2 C 8,3 C 85 % 1007,5 hPa 0,0 l/m 0 min 0 min 118 W/m 3,2 km/h (1 Bft) 100,00 %
04.11.2022 13:52 12,4 C 12,2 C 8,3 C 85 % 1007,5 hPa 0,0 l/m 0 min 0 min 132 W/m 6,4 km/h (2 Bft) 100,00 %
04.11.2022 13:54 12,4 C 12,8 C 8,3 C 85 % 1007,5 hPa 0,0 l/m 2 min 0 min 185 W/m 9,7 km/h (2 Bft) 100,00 %
04.11.2022 13:56 12,4 C 12,8 C 8,3 C 85 % 1007,5 hPa 0,0 l/m 2 min 0 min 257 W/m 6,4 km/h (2 Bft) 100,00 %
04.11.2022 13:58 12,4 C 13,3 C 8,3 C 85 % 1007,5 hPa 0,0 l/m 2 min 0 min 241 W/m 6,4 km/h (2 Bft) 100,00 %
04.11.2022 14:00 12,4 C 13,3 C 8,3 C 85 % 1007,5 hPa 0,0 l/m 2 min 0 min 315 W/m 6,4 km/h (2 Bft) 100,00 %
04.11.2022 14:02 12,5 C 13,3 C 8,3 C 85 % 1007,6 hPa 0,0 l/m 2 min 0 min 189 W/m 6,4 km/h (2 Bft) 97,83 %
04.11.2022 14:04 12,5 C 13,3 C 8,3 C 85 % 1007,7 hPa 0,0 l/m 2 min 0 min 187 W/m 3,2 km/h (1 Bft) 100,00 %
04.11.2022 14:06 12,6 C 13,3 C 8,3 C 84 % 1007,8 hPa 0,0 l/m 0 min 0 min 143 W/m 12,9 km/h (3 Bft) 100,00 %
04.11.2022 14:08 12,6 C 12,8 C 8,3 C 84 % 1007,8 hPa 0,0 l/m 0 min 0 min 126 W/m 6,4 km/h (2 Bft) 100,00 %
04.11.2022 14:10 12,6 C 12,8 C 8,3 C 84 % 1007,8 hPa 0,0 l/m 0 min 0 min 118 W/m 3,2 km/h (1 Bft) 100,00 %
04.11.2022 14:12 12,6 C 12,8 C 8,3 C 84 % 1007,8 hPa 0,0 l/m 0 min 0 min 110 W/m 3,2 km/h (1 Bft) 100,00 %
04.11.2022 14:14 12,5 C 12,8 C 8,3 C 84 % 1007,8 hPa 0,0 l/m 0 min 0 min 101 W/m 3,2 km/h (1 Bft) 100,00 %
04.11.2022 14:16 12,5 C 12,8 C 8,3 C 84 % 1007,9 hPa 0,0 l/m 0 min 0 min 92 W/m 6,4 km/h (2 Bft) 100,00 %
04.11.2022 14:18 12,5 C 12,2 C 8,3 C 84 % 1007,9 hPa 0,0 l/m 0 min 0 min 84 W/m 3,2 km/h (1 Bft) 100,00 %
04.11.2022 14:20 12,5 C 12,2 C 8,3 C 84 % 1007,9 hPa 0,0 l/m 0 min 0 min 77 W/m 6,4 km/h (2 Bft) 100,00 %
04.11.2022 14:22 12,5 C 12,2 C 8,3 C 84 % 1008,0 hPa 0,0 l/m 0 min 0 min 73 W/m 12,9 km/h (3 Bft) 97,87 %
04.11.2022 14:24 12,4 C 11,7 C 7,8 C 84 % 1007,9 hPa 0,0 l/m 0 min 0 min 71 W/m 9,7 km/h (2 Bft) 93,62 %
04.11.2022 14:26 12,4 C 11,7 C 7,8 C 84 % 1007,9 hPa 0,0 l/m 0 min 0 min 70 W/m 6,4 km/h (2 Bft) 97,83 %
04.11.2022 14:28 12,4 C 11,7 C 7,8 C 84 % 1008,0 hPa 0,0 l/m 0 min 0 min 65 W/m 3,2 km/h (1 Bft) 97,87 %
04.11.2022 14:30 12,3 C 11,7 C 7,8 C 84 % 1008,0 hPa 0,0 l/m 0 min 0 min 64 W/m 3,2 km/h (1 Bft) 97,87 %
04.11.2022 14:32 12,3 C 11,7 C 7,8 C 84 % 1008,0 hPa 0,0 l/m 0 min 0 min 67 W/m 6,4 km/h (2 Bft) 95,74 %
04.11.2022 14:34 12,3 C 11,7 C 7,8 C 84 % 1008,0 hPa 0,0 l/m 0 min 0 min 67 W/m 3,2 km/h (1 Bft) 95,74 %
04.11.2022 14:36 12,2 C 11,7 C 7,8 C 84 % 1008,0 hPa 0,0 l/m 0 min 0 min 71 W/m 0,0 km/h (0 Bft) 95,74 %
04.11.2022 14:38 12,2 C 11,7 C 7,8 C 84 % 1008,1 hPa 0,0 l/m 0 min 0 min 90 W/m 0,0 km/h (0 Bft) 95,65 %
04.11.2022 14:40 12,1 C 12,2 C 7,8 C 85 % 1008,1 hPa 0,0 l/m 2 min 0 min 187 W/m 0,0 km/h (0 Bft) 95,74 %
04.11.2022 14:42 12,1 C 12,2 C 7,8 C 85 % 1008,1 hPa 0,0 l/m 0 min 0 min 130 W/m 3,2 km/h (1 Bft) 93,62 %
04.11.2022 14:44 12,1 C 12,2 C 7,8 C 86 % 1008,2 hPa 0,0 l/m 0 min 0 min 103 W/m 3,2 km/h (1 Bft) 93,62 %
04.11.2022 14:46 12,1 C 11,7 C 7,8 C 86 % 1008,2 hPa 0,0 l/m 0 min 0 min 117 W/m 3,2 km/h (1 Bft) 95,74 %
04.11.2022 14:48 12,0 C 11,7 C 7,8 C 86 % 1008,2 hPa 0,0 l/m 0 min 0 min 102 W/m 3,2 km/h (1 Bft) 93,62 %
04.11.2022 14:50 12,0 C 11,7 C 7,8 C 86 % 1008,2 hPa 0,0 l/m 0 min 0 min 98 W/m 3,2 km/h (1 Bft) 95,65 %
04.11.2022 14:52 11,9 C 11,7 C 7,8 C 86 % 1008,2 hPa 0,0 l/m 0 min 0 min 98 W/m 0,0 km/h (0 Bft) 95,74 %
04.11.2022 14:54 11,9 C 11,7 C 7,8 C 86 % 1008,2 hPa 0,0 l/m 2 min 0 min 137 W/m 3,2 km/h (1 Bft) 95,74 %
04.11.2022 14:56 11,9 C 12,2 C 7,8 C 86 % 1008,2 hPa 0,0 l/m 2 min 0 min 173 W/m 0,0 km/h (0 Bft) 95,74 %
04.11.2022 14:58 11,9 C 12,2 C 7,8 C 86 % 1008,2 hPa 0,0 l/m 2 min 0 min 235 W/m 3,2 km/h (1 Bft) 93,62 %
04.11.2022 15:00 11,9 C 12,2 C 7,8 C 86 % 1008,2 hPa 0,0 l/m 2 min 0 min 202 W/m 3,2 km/h (1 Bft) 95,74 %
04.11.2022 15:02 12,0 C 12,2 C 7,8 C 86 % 1008,3 hPa 0,0 l/m 0 min 0 min 83 W/m 3,2 km/h (1 Bft) 95,65 %
04.11.2022 15:04 12,0 C 12,2 C 7,8 C 86 % 1008,3 hPa 0,0 l/m 0 min 0 min 109 W/m 3,2 km/h (1 Bft) 95,74 %
04.11.2022 15:06 12,0 C 12,2 C 7,8 C 86 % 1008,3 hPa 0,0 l/m 0 min 0 min 107 W/m 3,2 km/h (1 Bft) 95,74 %
04.11.2022 15:08 12,1 C 12,2 C 8,3 C 86 % 1008,4 hPa 0,0 l/m 2 min 0 min 148 W/m 3,2 km/h (1 Bft) 97,87 %
04.11.2022 15:10 12,1 C 12,2 C 8,3 C 86 % 1008,4 hPa 0,0 l/m 2 min 0 min 197 W/m 3,2 km/h (1 Bft) 97,87 %
04.11.2022 15:12 12,2 C 12,2 C 8,3 C 86 % 1008,4 hPa 0,0 l/m 2 min 0 min 170 W/m 6,4 km/h (2 Bft) 100,00 %
04.11.2022 15:14 12,2 C 12,2 C 8,3 C 86 % 1008,4 hPa 0,0 l/m 0 min 0 min 76 W/m 3,2 km/h (1 Bft) 97,87 %
04.11.2022 15:16 12,2 C 12,2 C 8,3 C 86 % 1008,5 hPa 0,0 l/m 0 min 0 min 62 W/m 3,2 km/h (1 Bft) 100,00 %
04.11.2022 15:18 12,2 C 12,2 C 8,3 C 86 % 1008,5 hPa 0,0 l/m 0 min 0 min 56 W/m 0,0 km/h (0 Bft) 97,87 %
04.11.2022 15:20 12,2 C 12,2 C 8,3 C 86 % 1008,5 hPa 0,0 l/m 0 min 0 min 50 W/m 3,2 km/h (1 Bft) 100,00 %
04.11.2022 15:22 12,2 C 12,2 C 8,3 C 86 % 1008,5 hPa 0,0 l/m 0 min 0 min 46 W/m 0,0 km/h (0 Bft) 100,00 %
04.11.2022 15:24 12,3 C 12,2 C 7,8 C 86 % 1008,6 hPa 0,0 l/m 0 min 0 min 48 W/m 0,0 km/h (0 Bft) 100,00 %
04.11.2022 15:26 12,3 C 11,7 C 7,8 C 85 % 1008,7 hPa 0,0 l/m 0 min 0 min 53 W/m 0,0 km/h (0 Bft) 100,00 %
04.11.2022 15:28 12,3 C 11,7 C 7,8 C 85 % 1008,6 hPa 0,0 l/m 0 min 0 min 53 W/m 0,0 km/h (0 Bft) 100,00 %
04.11.2022 15:30 12,3 C 11,7 C 7,8 C 85 % 1008,7 hPa 0,0 l/m 0 min 0 min 53 W/m 0,0 km/h (0 Bft) 100,00 %
04.11.2022 15:32 12,3 C 11,7 C 7,8 C 85 % 1008,7 hPa 0,0 l/m 0 min 0 min 54 W/m 0,0 km/h (0 Bft) 97,87 %
04.11.2022 15:34 12,2 C 11,7 C 7,8 C 85 % 1008,7 hPa 0,0 l/m 0 min 0 min 53 W/m 0,0 km/h (0 Bft) 100,00 %
04.11.2022 15:36 12,2 C 11,7 C 7,8 C 85 % 1008,8 hPa 0,0 l/m 0 min 0 min 48 W/m 0,0 km/h (0 Bft) 97,83 %
04.11.2022 15:38 12,2 C 11,7 C 7,8 C 85 % 1008,8 hPa 0,0 l/m 0 min 0 min 43 W/m 0,0 km/h (0 Bft) 100,00 %
04.11.2022 15:40 12,2 C 11,7 C 7,8 C 85 % 1008,8 hPa 0,0 l/m 0 min 0 min 36 W/m 0,0 km/h (0 Bft) 100,00 %
04.11.2022 15:42 12,2 C 11,7 C 7,8 C 85 % 1008,8 hPa 0,0 l/m 0 min 0 min 38 W/m 0,0 km/h (0 Bft) 100,00 %
04.11.2022 15:44 12,2 C 11,7 C 7,8 C 85 % 1008,8 hPa 0,0 l/m 0 min 0 min 49 W/m 0,0 km/h (0 Bft) 100,00 %
04.11.2022 15:46 12,2 C 11,7 C 7,2 C 85 % 1008,8 hPa 0,0 l/m 0 min 0 min 52 W/m 0,0 km/h (0 Bft) 97,87 %
04.11.2022 15:48 12,2 C 11,7 C 7,2 C 85 % 1008,9 hPa 0,0 l/m 0 min 0 min 44 W/m 0,0 km/h (0 Bft) 97,83 %
04.11.2022 15:50 12,2 C 11,7 C 7,2 C 85 % 1008,9 hPa 0,0 l/m 0 min 0 min 40 W/m 0,0 km/h (0 Bft) 100,00 %
04.11.2022 15:52 12,2 C 11,7 C 7,2 C 86 % 1008,9 hPa 0,0 l/m 0 min 0 min 33 W/m 0,0 km/h (0 Bft) 97,87 %
04.11.2022 15:54 12,2 C 11,1 C 7,2 C 86 % 1008,9 hPa 0,0 l/m 0 min 0 min 25 W/m 0,0 km/h (0 Bft) 95,74 %
04.11.2022 15:56 12,2 C 11,1 C 7,2 C 86 % 1009,0 hPa 0,0 l/m 0 min 0 min 21 W/m 6,4 km/h (2 Bft) 95,74 %
04.11.2022 15:58 12,2 C 11,1 C 7,2 C 86 % 1008,9 hPa 0,0 l/m 0 min 0 min 20 W/m 3,2 km/h (1 Bft) 97,87 %
04.11.2022 16:00 12,1 C 11,1 C 7,2 C 86 % 1009,0 hPa 0,0 l/m 0 min 0 min 19 W/m 3,2 km/h (1 Bft) 97,83 %
04.11.2022 16:02 12,1 C 11,1 C 7,2 C 86 % 1009,1 hPa 0,0 l/m 0 min 0 min 19 W/m 3,2 km/h (1 Bft) 85,11 %
04.11.2022 16:04 12,0 C 10,6 C 7,2 C 86 % 1009,1 hPa 0,0 l/m 0 min 0 min 18 W/m 0,0 km/h (0 Bft) 70,21 %
04.11.2022 16:06 12,0 C 10,6 C 7,2 C 86 % 1009,3 hPa 0,0 l/m 0 min 0 min 18 W/m 3,2 km/h (1 Bft) 82,98 %
04.11.2022 16:08 11,9 C 10,6 C 7,2 C 86 % 1009,3 hPa 0,0 l/m 0 min 0 min 16 W/m 0,0 km/h (0 Bft) 97,87 %
04.11.2022 16:10 11,9 C 10,6 C 6,7 C 86 % 1009,3 hPa 0,0 l/m 0 min 0 min 16 W/m 0,0 km/h (0 Bft) 97,87 %
04.11.2022 16:12 11,8 C 10,6 C 6,7 C 86 % 1009,4 hPa 0,0 l/m 0 min 0 min 15 W/m 0,0 km/h (0 Bft) 97,83 %
04.11.2022 16:14 11,8 C 10,6 C 6,7 C 86 % 1009,4 hPa 0,0 l/m 0 min 0 min 14 W/m 0,0 km/h (0 Bft) 97,87 %
04.11.2022 16:16 11,7 C 10,0 C 6,7 C 86 % 1009,5 hPa 0,0 l/m 0 min 0 min 14 W/m 0,0 km/h (0 Bft) 97,87 %
04.11.2022 16:18 11,7 C 10,0 C 6,7 C 86 % 1009,5 hPa 0,0 l/m 0 min 0 min 12 W/m 0,0 km/h (0 Bft) 97,87 %
04.11.2022 16:20 11,7 C 10,0 C 6,7 C 86 % 1009,5 hPa 0,0 l/m 0 min 0 min 12 W/m 0,0 km/h (0 Bft) 97,87 %
04.11.2022 16:22 11,6 C 10,0 C 6,7 C 86 % 1009,5 hPa 0,0 l/m 0 min 0 min 12 W/m 0,0 km/h (0 Bft) 97,83 %
04.11.2022 16:24 11,6 C 10,0 C 6,7 C 86 % 1009,5 hPa 0,0 l/m 0 min 0 min 12 W/m 0,0 km/h (0 Bft) 95,74 %
04.11.2022 16:26 11,5 C 10,0 C 6,7 C 87 % 1009,6 hPa 0,0 l/m 0 min 0 min 11 W/m 0,0 km/h (0 Bft) 97,87 %
04.11.2022 16:28 11,4 C 10,0 C 6,7 C 87 % 1009,6 hPa 0,0 l/m 0 min 0 min 11 W/m 0,0 km/h (0 Bft) 95,74 %
04.11.2022 16:30 11,4 C 10,0 C 6,1 C 87 % 1009,6 hPa 0,0 l/m 0 min 0 min 11 W/m 0,0 km/h (0 Bft) 97,87 %
04.11.2022 16:32 11,4 C 10,0 C 6,1 C 87 % 1009,7 hPa 0,0 l/m 0 min 0 min 11 W/m 3,2 km/h (1 Bft) 97,87 %
04.11.2022 16:34 11,3 C 10,0 C 6,1 C 87 % 1009,7 hPa 0,0 l/m 0 min 0 min 11 W/m 0,0 km/h (0 Bft) 97,83 %
04.11.2022 16:36 11,3 C 10,0 C 6,1 C 87 % 1009,7 hPa 0,0 l/m 0 min 0 min 9 W/m 0,0 km/h (0 Bft) 97,87 %
04.11.2022 16:38 11,3 C 10,0 C 6,1 C 87 % 1009,6 hPa 0,0 l/m 0 min 0 min 9 W/m 0,0 km/h (0 Bft) 100,00 %
04.11.2022 16:40 11,2 C 9,4 C 6,1 C 88 % 1009,7 hPa 0,0 l/m 0 min 0 min 9 W/m 0,0 km/h (0 Bft) 100,00 %
04.11.2022 16:42 11,2 C 9,4 C 6,1 C 88 % 1009,8 hPa 0,0 l/m 0 min 0 min 9 W/m 0,0 km/h (0 Bft) 97,87 %
04.11.2022 16:44 11,1 C 9,4 C 6,1 C 88 % 1009,8 hPa 0,0 l/m 0 min 0 min 8 W/m 0,0 km/h (0 Bft) 97,87 %
04.11.2022 16:46 11,1 C 9,4 C 6,1 C 88 % 1009,8 hPa 0,0 l/m 0 min 0 min 7 W/m 0,0 km/h (0 Bft) 97,83 %
04.11.2022 16:48 11,1 C 9,4 C 6,1 C 88 % 1009,8 hPa 0,0 l/m 0 min 0 min 7 W/m 0,0 km/h (0 Bft) 97,87 %
04.11.2022 16:50 11,0 C 9,4 C 6,1 C 88 % 1009,8 hPa 0,0 l/m 0 min 0 min 7 W/m 0,0 km/h (0 Bft) 97,87 %
04.11.2022 16:52 11,0 C 9,4 C 6,1 C 89 % 1009,9 hPa 0,0 l/m 0 min 0 min 7 W/m 0,0 km/h (0 Bft) 95,74 %
04.11.2022 16:54 10,9 C 9,4 C 6,1 C 89 % 1009,9 hPa 0,0 l/m 0 min 0 min 7 W/m 0,0 km/h (0 Bft) 95,74 %
04.11.2022 16:56 10,9 C 9,4 C 6,1 C 89 % 1009,9 hPa 0,0 l/m 0 min 0 min 5 W/m 0,0 km/h (0 Bft) 97,87 %
04.11.2022 16:58 10,9 C 9,4 C 6,1 C 89 % 1009,9 hPa 0,0 l/m 0 min 0 min 1 W/m 0,0 km/h (0 Bft) 97,83 %
04.11.2022 17:00 10,9 C 9,4 C 6,1 C 89 % 1009,9 hPa 0,0 l/m 0 min 0 min 0 W/m 0,0 km/h (0 Bft) 97,87 %
04.11.2022 17:02 10,8 C 9,4 C 6,1 C 89 % 1010,0 hPa 0,0 l/m 0 min 0 min 0 W/m 0,0 km/h (0 Bft) 95,74 %
04.11.2022 17:04 10,8 C 9,4 C 6,1 C 89 % 1010,1 hPa 0,0 l/m 0 min 0 min 0 W/m 0,0 km/h (0 Bft) 97,87 %
04.11.2022 17:06 10,8 C 9,4 C 6,1 C 89 % 1010,1 hPa 0,0 l/m 0 min 0 min 0 W/m 3,2 km/h (1 Bft) 95,74 %
04.11.2022 17:08 10,8 C 10,0 C 6,1 C 89 % 1010,1 hPa 0,0 l/m 0 min 0 min 0 W/m 3,2 km/h (1 Bft) 95,74 %
04.11.2022 17:10 10,8 C 10,0 C 6,1 C 89 % 1010,1 hPa 0,0 l/m 0 min 0 min 0 W/m 3,2 km/h (1 Bft) 93,48 %
04.11.2022 17:12 10,8 C 10,0 C 6,1 C 89 % 1010,1 hPa 0,0 l/m 0 min 0 min 0 W/m 0,0 km/h (0 Bft) 95,74 %
04.11.2022 17:14 10,7 C 10,0 C 6,1 C 90 % 1010,1 hPa 0,0 l/m 0 min 0 min 0 W/m 0,0 km/h (0 Bft) 97,87 %
04.11.2022 17:16 10,7 C 10,0 C 6,1 C 90 % 1010,2 hPa 0,0 l/m 0 min 0 min 0 W/m 0,0 km/h (0 Bft) 100,00 %
04.11.2022 17:18 10,7 C 9,4 C 6,1 C 90 % 1010,2 hPa 0,0 l/m 0 min 0 min 0 W/m 0,0 km/h (0 Bft) 93,62 %
04.11.2022 17:20 10,7 C 9,4 C 6,1 C 90 % 1010,2 hPa 0,0 l/m 0 min 0 min 0 W/m 0,0 km/h (0 Bft) 97,87 %
04.11.2022 17:22 10,7 C 9,4 C 6,1 C 90 % 1010,2 hPa 0,0 l/m 0 min 0 min 0 W/m 0,0 km/h (0 Bft) 97,83 %
04.11.2022 17:24 10,7 C 9,4 C 6,1 C 90 % 1010,3 hPa 0,0 l/m 0 min 0 min 0 W/m 0,0 km/h (0 Bft) 97,87 %
04.11.2022 17:26 10,7 C 9,4 C 6,1 C 90 % 1010,3 hPa 0,0 l/m 0 min 0 min 0 W/m 0,0 km/h (0 Bft) 97,87 %
04.11.2022 17:28 10,7 C 9,4 C 6,1 C 90 % 1010,3 hPa 0,0 l/m 0 min 0 min 0 W/m 0,0 km/h (0 Bft) 93,62 %
04.11.2022 17:30 10,7 C 9,4 C 6,1 C 90 % 1010,4 hPa 0,0 l/m 0 min 0 min 0 W/m 0,0 km/h (0 Bft) 97,87 %
04.11.2022 17:32 10,6 C 9,4 C 6,1 C 90 % 1010,4 hPa 0,0 l/m 0 min 0 min 0 W/m 0,0 km/h (0 Bft) 97,87 %
04.11.2022 17:34 10,6 C 9,4 C 6,1 C 91 % 1010,5 hPa 0,0 l/m 0 min 0 min 0 W/m 0,0 km/h (0 Bft) 95,65 %
04.11.2022 17:36 10,6 C 9,4 C 6,1 C 91 % 1010,5 hPa 0,0 l/m 0 min 0 min 0 W/m 0,0 km/h (0 Bft) 97,87 %
04.11.2022 17:38 10,6 C 9,4 C 6,1 C 91 % 1010,5 hPa 0,0 l/m 0 min 0 min 0 W/m 0,0 km/h (0 Bft) 96,36 %
04.11.2022 17:40 10,6 C 9,4 C 6,1 C 91 % 1010,6 hPa 0,0 l/m 0 min 0 min 0 W/m 0,0 km/h (0 Bft) 97,83 %
04.11.2022 17:42 10,6 C 9,4 C 6,1 C 91 % 1010,5 hPa 0,0 l/m 0 min 0 min 0 W/m 0,0 km/h (0 Bft) 97,87 %
04.11.2022 17:44 10,6 C 9,4 C 6,1 C 91 % 1010,6 hPa 0,0 l/m 0 min 0 min 0 W/m 0,0 km/h (0 Bft) 93,62 %
04.11.2022 17:46 10,6 C 9,4 C 6,1 C 91 % 1010,6 hPa 0,0 l/m 0 min 0 min 0 W/m 0,0 km/h (0 Bft) 95,74 %
04.11.2022 17:48 10,6 C 9,4 C 6,1 C 91 % 1010,6 hPa 0,0 l/m 0 min 0 min 0 W/m 0,0 km/h (0 Bft) 95,74 %
04.11.2022 17:50 10,6 C 9,4 C 6,1 C 91 % 1010,6 hPa 0,0 l/m 0 min 0 min 0 W/m 0,0 km/h (0 Bft) 97,87 %
04.11.2022 17:52 10,6 C 9,4 C 6,1 C 91 % 1010,7 hPa 0,0 l/m 0 min 0 min 0 W/m 0,0 km/h (0 Bft) 97,83 %
04.11.2022 17:54 10,6 C 9,4 C 6,1 C 91 % 1010,7 hPa 0,0 l/m 0 min 0 min 0 W/m 0,0 km/h (0 Bft) 97,87 %
04.11.2022 17:56 10,6 C 9,4 C 6,1 C 92 % 1010,7 hPa 0,0 l/m 0 min 0 min 0 W/m 0,0 km/h (0 Bft) 97,87 %
04.11.2022 17:58 10,6 C 9,4 C 6,1 C 92 % 1010,8 hPa 0,0 l/m 0 min 0 min 0 W/m 0,0 km/h (0 Bft) 97,87 %
04.11.2022 18:00 10,6 C 9,4 C 6,1 C 92 % 1010,8 hPa 0,0 l/m 0 min 0 min 0 W/m 0,0 km/h (0 Bft) 97,87 %
04.11.2022 18:02 10,6 C 9,4 C 6,1 C 92 % 1010,8 hPa 0,0 l/m 0 min 0 min 0 W/m 0,0 km/h (0 Bft) 100,00 %
04.11.2022 18:04 10,5 C 9,4 C 6,1 C 92 % 1010,8 hPa 0,0 l/m 0 min 0 min 0 W/m 0,0 km/h (0 Bft) 97,83 %
04.11.2022 18:08 10,6 C 9,4 C 6,1 C 92 % 1010,8 hPa 0,0 l/m 0 min 0 min 0 W/m 0,0 km/h (0 Bft) 100,00 %
04.11.2022 18:10 10,6 C 9,4 C 6,1 C 92 % 1010,8 hPa 0,0 l/m 0 min 0 min 0 W/m 0,0 km/h (0 Bft) 97,87 %
04.11.2022 18:12 10,6 C 10,0 C 6,1 C 92 % 1010,9 hPa 0,0 l/m 0 min 0 min 0 W/m 0,0 km/h (0 Bft) 97,87 %
04.11.2022 18:14 10,6 C 10,0 C 6,1 C 92 % 1010,9 hPa 0,0 l/m 0 min 0 min 0 W/m 0,0 km/h (0 Bft) 100,00 %
04.11.2022 18:16 10,6 C 9,4 C 6,1 C 92 % 1011,0 hPa 0,0 l/m 0 min 0 min 0 W/m 0,0 km/h (0 Bft) 97,22 %
04.11.2022 18:18 10,6 C 9,4 C 6,1 C 92 % 1011,0 hPa 0,0 l/m 0 min 0 min 0 W/m 0,0 km/h (0 Bft) 100,00 %
04.11.2022 18:20 10,5 C 9,4 C 6,1 C 92 % 1011,0 hPa 0,0 l/m 0 min 0 min 0 W/m 0,0 km/h (0 Bft) 97,87 %
04.11.2022 18:22 10,5 C 9,4 C 6,1 C 92 % 1011,1 hPa 0,0 l/m 0 min 0 min 0 W/m 0,0 km/h (0 Bft) 93,62 %
04.11.2022 18:24 10,5 C 9,4 C 6,1 C 92 % 1011,0 hPa 0,0 l/m 0 min 0 min 0 W/m 0,0 km/h (0 Bft) 98,31 %
04.11.2022 18:26 10,5 C 9,4 C 6,7 C 92 % 1011,0 hPa 0,0 l/m 0 min 0 min 0 W/m 0,0 km/h (0 Bft) 97,14 %
04.11.2022 18:28 10,5 C 9,4 C 6,7 C 92 % 1011,1 hPa 0,0 l/m 0 min 0 min 0 W/m 0,0 km/h (0 Bft) 97,87 %
04.11.2022 18:30 10,5 C 9,4 C 6,7 C 92 % 1011,1 hPa 0,0 l/m 0 min 0 min 0 W/m 3,2 km/h (1 Bft) 95,65 %
04.11.2022 18:32 10,5 C 9,4 C 6,7 C 92 % 1011,1 hPa 0,0 l/m 0 min 0 min 0 W/m 3,2 km/h (1 Bft) 93,62 %
04.11.2022 18:34 10,5 C 9,4 C 6,7 C 92 % 1011,1 hPa 0,0 l/m 0 min 0 min 0 W/m 0,0 km/h (0 Bft) 95,74 %
04.11.2022 18:36 10,5 C 9,4 C 6,7 C 92 % 1011,2 hPa 0,0 l/m 0 min 0 min 0 W/m 3,2 km/h (1 Bft) 93,22 %
04.11.2022 18:38 10,5 C 9,4 C 6,7 C 92 % 1011,2 hPa 0,0 l/m 0 min 0 min 0 W/m 0,0 km/h (0 Bft) 95,65 %
04.11.2022 18:40 10,4 C 9,4 C 6,7 C 92 % 1011,2 hPa 0,0 l/m 0 min 0 min 0 W/m 3,2 km/h (1 Bft) 97,22 %
04.11.2022 18:42 10,4 C 9,4 C 6,7 C 93 % 1011,2 hPa 0,0 l/m 0 min 0 min 0 W/m 0,0 km/h (0 Bft) 91,30 %
04.11.2022 18:44 10,4 C 9,4 C 6,1 C 93 % 1011,2 hPa 0,0 l/m 0 min 0 min 0 W/m 0,0 km/h (0 Bft) 95,83 %
04.11.2022 18:46 10,4 C 9,4 C 6,1 C 93 % 1011,3 hPa 0,0 l/m 0 min 0 min 0 W/m 0,0 km/h (0 Bft) 93,62 %
04.11.2022 18:48 10,4 C 9,4 C 6,1 C 93 % 1011,3 hPa 0,0 l/m 0 min 0 min 0 W/m 0,0 km/h (0 Bft) 89,36 %
04.11.2022 18:50 10,4 C 9,4 C 6,1 C 93 % 1011,4 hPa 0,0 l/m 0 min 0 min 0 W/m 0,0 km/h (0 Bft) 95,74 %
04.11.2022 18:52 10,4 C 9,4 C 6,1 C 92 % 1011,4 hPa 0,0 l/m 0 min 0 min 0 W/m 0,0 km/h (0 Bft) 95,65 %
04.11.2022 18:54 10,4 C 9,4 C 6,1 C 93 % 1011,4 hPa 0,0 l/m 0 min 0 min 0 W/m 0,0 km/h (0 Bft) 95,74 %
04.11.2022 18:56 10,4 C 9,4 C 6,1 C 93 % 1011,4 hPa 0,0 l/m 0 min 0 min 0 W/m 0,0 km/h (0 Bft) 95,74 %
04.11.2022 18:58 10,3 C 9,4 C 6,1 C 93 % 1011,4 hPa 0,0 l/m 0 min 0 min 0 W/m 3,2 km/h (1 Bft) 97,87 %
04.11.2022 19:00 10,3 C 9,4 C 6,1 C 93 % 1011,4 hPa 0,0 l/m 0 min 0 min 0 W/m 0,0 km/h (0 Bft) 93,62 %
04.11.2022 19:02 10,3 C 9,4 C 6,1 C 93 % 1011,4 hPa 0,0 l/m 0 min 0 min 0 W/m 0,0 km/h (0 Bft) 97,87 %
04.11.2022 19:04 10,3 C 9,4 C 6,1 C 93 % 1011,4 hPa 0,0 l/m 0 min 0 min 0 W/m 0,0 km/h (0 Bft) 97,83 %
04.11.2022 19:06 10,3 C 9,4 C 6,1 C 93 % 1011,5 hPa 0,0 l/m 0 min 0 min 0 W/m 0,0 km/h (0 Bft) 100,00 %
04.11.2022 19:08 10,3 C 9,4 C 6,1 C 93 % 1011,5 hPa 0,0 l/m 0 min 0 min 0 W/m 0,0 km/h (0 Bft) 100,00 %
04.11.2022 19:10 10,3 C 9,4 C 6,1 C 93 % 1011,5 hPa 0,0 l/m 0 min 0 min 0 W/m 0,0 km/h (0 Bft) 100,00 %
04.11.2022 19:12 10,2 C 9,4 C 6,1 C 93 % 1011,5 hPa 0,0 l/m 0 min 0 min 0 W/m 0,0 km/h (0 Bft) 100,00 %
04.11.2022 19:14 10,2 C 8,9 C 6,1 C 93 % 1011,5 hPa 0,0 l/m 0 min 0 min 0 W/m 0,0 km/h (0 Bft) 97,87 %
04.11.2022 19:16 10,2 C 8,9 C 6,1 C 93 % 1011,5 hPa 0,0 l/m 0 min 0 min 0 W/m 0,0 km/h (0 Bft) 100,00 %
04.11.2022 19:18 10,2 C 8,9 C 6,1 C 93 % 1011,6 hPa 0,0 l/m 0 min 0 min 0 W/m 0,0 km/h (0 Bft) 100,00 %
04.11.2022 19:20 10,2 C 8,9 C 6,1 C 93 % 1011,6 hPa 0,0 l/m 0 min 0 min 0 W/m 0,0 km/h (0 Bft) 95,74 %
04.11.2022 19:22 10,2 C 8,9 C 6,1 C 93 % 1011,6 hPa 0,0 l/m 0 min 0 min 0 W/m 0,0 km/h (0 Bft) 100,00 %
04.11.2022 19:24 10,1 C 8,9 C 5,6 C 93 % 1011,6 hPa 0,0 l/m 0 min 0 min 0 W/m 0,0 km/h (0 Bft) 95,74 %
04.11.2022 19:26 10,1 C 8,9 C 5,6 C 93 % 1011,8 hPa 0,0 l/m 0 min 0 min 0 W/m 0,0 km/h (0 Bft) 93,62 %
04.11.2022 19:28 10,1 C 8,9 C 6,1 C 93 % 1011,8 hPa 0,0 l/m 0 min 0 min 0 W/m 0,0 km/h (0 Bft) 100,00 %
04.11.2022 19:30 10,1 C 8,9 C 6,1 C 93 % 1011,8 hPa 0,0 l/m 0 min 0 min 0 W/m 0,0 km/h (0 Bft) 100,00 %
04.11.2022 19:32 10,1 C 8,9 C 6,1 C 93 % 1011,8 hPa 0,0 l/m 0 min 0 min 0 W/m 0,0 km/h (0 Bft) 97,87 %
04.11.2022 19:34 10,1 C 8,9 C 6,1 C 93 % 1011,9 hPa 0,0 l/m 0 min 0 min 0 W/m 0,0 km/h (0 Bft) 100,00 %
04.11.2022 19:36 10,1 C 8,9 C 6,1 C 93 % 1012,0 hPa 0,0 l/m 0 min 0 min 0 W/m 0,0 km/h (0 Bft) 100,00 %
04.11.2022 19:38 10,1 C 8,9 C 6,1 C 93 % 1011,9 hPa 0,0 l/m 0 min 0 min 0 W/m 0,0 km/h (0 Bft) 97,87 %
04.11.2022 19:40 10,1 C 8,9 C 6,1 C 93 % 1012,0 hPa 0,0 l/m 0 min 0 min 0 W/m 3,2 km/h (1 Bft) 95,74 %
04.11.2022 19:42 10,1 C 8,9 C 6,1 C 93 % 1012,0 hPa 0,0 l/m 0 min 0 min 0 W/m 0,0 km/h (0 Bft) 97,83 %
04.11.2022 19:44 10,1 C 8,9 C 6,1 C 93 % 1012,1 hPa 0,0 l/m 0 min 0 min 0 W/m 0,0 km/h (0 Bft) 97,87 %
04.11.2022 19:46 10,0 C 8,9 C 6,1 C 93 % 1012,0 hPa 0,0 l/m 0 min 0 min 0 W/m 0,0 km/h (0 Bft) 100,00 %
04.11.2022 19:48 10,0 C 8,9 C 6,1 C 93 % 1012,1 hPa 0,0 l/m 0 min 0 min 0 W/m 0,0 km/h (0 Bft) 100,00 %
04.11.2022 19:50 10,0 C 8,9 C 6,1 C 93 % 1012,0 hPa 0,0 l/m 0 min 0 min 0 W/m 0,0 km/h (0 Bft) 97,87 %
04.11.2022 19:52 10,0 C 8,9 C 6,1 C 93 % 1012,0 hPa 0,0 l/m 0 min 0 min 0 W/m 0,0 km/h (0 Bft) 100,00 %
04.11.2022 19:54 9,9 C 8,9 C 6,1 C 93 % 1012,0 hPa 0,0 l/m 0 min 0 min 0 W/m 0,0 km/h (0 Bft) 97,83 %
04.11.2022 19:56 9,9 C 8,9 C 5,6 C 94 % 1012,0 hPa 0,0 l/m 0 min 0 min 0 W/m 0,0 km/h (0 Bft) 97,87 %
04.11.2022 19:58 9,9 C 8,9 C 5,6 C 94 % 1012,0 hPa 0,0 l/m 0 min 0 min 0 W/m 0,0 km/h (0 Bft) 100,00 %
04.11.2022 20:00 9,9 C 8,9 C 5,6 C 94 % 1011,9 hPa 0,0 l/m 0 min 0 min 0 W/m 0,0 km/h (0 Bft) 100,00 %
04.11.2022 20:02 9,9 C 8,9 C 5,6 C 94 % 1012,0 hPa 0,0 l/m 0 min 0 min 0 W/m 0,0 km/h (0 Bft) 97,87 %
04.11.2022 20:04 9,9 C 8,9 C 5,6 C 94 % 1012,0 hPa 0,0 l/m 0 min 0 min 0 W/m 0,0 km/h (0 Bft) 100,00 %
04.11.2022 20:06 9,8 C 8,9 C 5,6 C 94 % 1012,0 hPa 0,0 l/m 0 min 0 min 0 W/m 0,0 km/h (0 Bft) 97,87 %
04.11.2022 20:08 9,8 C 8,3 C 5,6 C 94 % 1012,0 hPa 0,0 l/m 0 min 0 min 0 W/m 0,0 km/h (0 Bft) 98,18 %
04.11.2022 20:10 9,8 C 8,3 C 5,6 C 94 % 1012,0 hPa 0,0 l/m 0 min 0 min 0 W/m 0,0 km/h (0 Bft) 95,74 %
04.11.2022 20:12 9,8 C 8,3 C 5,6 C 94 % 1012,0 hPa 0,0 l/m 0 min 0 min 0 W/m 0,0 km/h (0 Bft) 97,83 %
04.11.2022 20:14 9,8 C 8,3 C 5,6 C 94 % 1012,0 hPa 0,0 l/m 0 min 0 min 0 W/m 0,0 km/h (0 Bft) 95,74 %
04.11.2022 20:16 9,8 C 8,3 C 5,6 C 94 % 1012,0 hPa 0,0 l/m 0 min 0 min 0 W/m 0,0 km/h (0 Bft) 97,87 %
04.11.2022 20:18 9,8 C 8,3 C 5,6 C 94 % 1012,1 hPa 0,0 l/m 0 min 0 min 0 W/m 0,0 km/h (0 Bft) 97,87 %
04.11.2022 20:20 9,7 C 8,3 C 5,6 C 94 % 1012,1 hPa 0,0 l/m 0 min 0 min 0 W/m 0,0 km/h (0 Bft) 95,74 %
04.11.2022 20:22 9,7 C 8,3 C 5,6 C 94 % 1012,2 hPa 0,0 l/m 0 min 0 min 0 W/m 0,0 km/h (0 Bft) 93,62 %
04.11.2022 20:24 9,7 C 8,3 C 5,6 C 94 % 1012,2 hPa 0,0 l/m 0 min 0 min 0 W/m 0,0 km/h (0 Bft) 97,83 %
04.11.2022 20:26 9,7 C 8,9 C 5,6 C 94 % 1012,2 hPa 0,0 l/m 0 min 0 min 0 W/m 3,2 km/h (1 Bft) 91,49 %
04.11.2022 20:28 9,7 C 8,9 C 5,6 C 94 % 1012,3 hPa 0,0 l/m 0 min 0 min 0 W/m 0,0 km/h (0 Bft) 95,74 %
04.11.2022 20:30 9,7 C 8,9 C 6,1 C 94 % 1012,3 hPa 0,0 l/m 0 min 0 min 0 W/m 3,2 km/h (1 Bft) 93,62 %
04.11.2022 20:32 9,7 C 8,9 C 6,1 C 94 % 1012,4 hPa 0,0 l/m 0 min 0 min 0 W/m 3,2 km/h (1 Bft) 93,62 %
04.11.2022 20:34 9,7 C 8,9 C 6,1 C 94 % 1012,4 hPa 0,0 l/m 0 min 0 min 0 W/m 0,0 km/h (0 Bft) 93,62 %
04.11.2022 20:36 9,7 C 8,9 C 6,1 C 94 % 1012,4 hPa 0,0 l/m 0 min 0 min 0 W/m 0,0 km/h (0 Bft) 95,65 %
04.11.2022 20:38 9,8 C 8,9 C 6,1 C 94 % 1012,3 hPa 0,0 l/m 0 min 0 min 0 W/m 0,0 km/h (0 Bft) 95,74 %
04.11.2022 20:40 9,8 C 8,9 C 6,1 C 94 % 1012,4 hPa 0,0 l/m 0 min 0 min 0 W/m 0,0 km/h (0 Bft) 93,62 %
04.11.2022 20:42 9,8 C 8,9 C 6,1 C 95 % 1012,4 hPa 0,0 l/m 0 min 0 min 0 W/m 0,0 km/h (0 Bft) 93,62 %
04.11.2022 20:44 9,8 C 8,9 C 6,1 C 95 % 1012,4 hPa 0,0 l/m 0 min 0 min 0 W/m 3,2 km/h (1 Bft) 93,62 %
04.11.2022 20:46 9,8 C 8,9 C 6,1 C 95 % 1012,4 hPa 0,0 l/m 0 min 0 min 0 W/m 0,0 km/h (0 Bft) 95,74 %
04.11.2022 20:48 9,8 C 8,9 C 6,1 C 95 % 1012,4 hPa 0,0 l/m 0 min 0 min 0 W/m 0,0 km/h (0 Bft) 93,48 %
04.11.2022 20:50 9,8 C 8,9 C 6,1 C 95 % 1012,5 hPa 0,0 l/m 0 min 0 min 0 W/m 3,2 km/h (1 Bft) 93,62 %
04.11.2022 20:52 9,8 C 8,9 C 6,1 C 95 % 1012,6 hPa 0,0 l/m 0 min 0 min 0 W/m 6,4 km/h (2 Bft) 93,62 %
04.11.2022 20:54 9,8 C 8,9 C 6,1 C 95 % 1012,6 hPa 0,0 l/m 0 min 0 min 0 W/m 0,0 km/h (0 Bft) 95,74 %
04.11.2022 20:56 9,8 C 8,9 C 6,1 C 95 % 1012,6 hPa 0,0 l/m 0 min 0 min 0 W/m 6,4 km/h (2 Bft) 97,87 %
04.11.2022 20:58 9,8 C 8,9 C 6,1 C 95 % 1012,6 hPa 0,0 l/m 0 min 0 min 0 W/m 9,7 km/h (2 Bft) 95,65 %
04.11.2022 21:00 9,8 C 8,9 C 6,1 C 95 % 1012,7 hPa 0,0 l/m 0 min 0 min 0 W/m 6,4 km/h (2 Bft) 93,62 %
04.11.2022 21:02 9,8 C 8,9 C 6,1 C 95 % 1012,6 hPa 0,0 l/m 0 min 0 min 0 W/m 6,4 km/h (2 Bft) 93,62 %
04.11.2022 21:04 9,7 C 9,4 C 6,1 C 95 % 1012,7 hPa 0,0 l/m 0 min 0 min 0 W/m 6,4 km/h (2 Bft) 95,74 %
04.11.2022 21:06 9,7 C 9,4 C 6,1 C 95 % 1012,7 hPa 0,0 l/m 0 min 0 min 0 W/m 3,2 km/h (1 Bft) 93,62 %
04.11.2022 21:08 9,7 C 9,4 C 6,1 C 95 % 1012,7 hPa 0,0 l/m 0 min 0 min 0 W/m 3,2 km/h (1 Bft) 95,74 %
04.11.2022 21:10 9,7 C 9,4 C 6,1 C 95 % 1012,7 hPa 0,0 l/m 0 min 0 min 0 W/m 3,2 km/h (1 Bft) 95,65 %
04.11.2022 21:12 9,7 C 9,4 C 6,1 C 95 % 1012,8 hPa 0,0 l/m 0 min 0 min 0 W/m 6,4 km/h (2 Bft) 95,74 %
04.11.2022 21:14 9,7 C 9,4 C 6,1 C 95 % 1012,9 hPa 0,0 l/m 0 min 0 min 0 W/m 3,2 km/h (1 Bft) 91,49 %
04.11.2022 21:16 9,7 C 9,4 C 6,1 C 95 % 1012,9 hPa 0,0 l/m 0 min 0 min 0 W/m 0,0 km/h (0 Bft) 97,87 %
04.11.2022 21:18 9,8 C 9,4 C 6,1 C 95 % 1012,9 hPa 0,0 l/m 0 min 0 min 0 W/m 6,4 km/h (2 Bft) 91,49 %
04.11.2022 21:20 9,7 C 9,4 C 6,1 C 95 % 1012,9 hPa 0,0 l/m 0 min 0 min 0 W/m 6,4 km/h (2 Bft) 95,74 %
04.11.2022 21:22 9,8 C 9,4 C 6,1 C 95 % 1013,0 hPa 0,0 l/m 0 min 0 min 0 W/m 3,2 km/h (1 Bft) 97,83 %
04.11.2022 21:24 9,8 C 9,4 C 6,1 C 95 % 1013,0 hPa 0,0 l/m 0 min 0 min 0 W/m 0,0 km/h (0 Bft) 97,87 %
04.11.2022 21:26 9,8 C 8,9 C 6,1 C 95 % 1013,0 hPa 0,0 l/m 0 min 0 min 0 W/m 3,2 km/h (1 Bft) 97,87 %
04.11.2022 21:28 9,8 C 9,4 C 6,1 C 95 % 1013,1 hPa 0,0 l/m 0 min 0 min 0 W/m 3,2 km/h (1 Bft) 100,00 %
04.11.2022 21:30 9,8 C 8,9 C 6,1 C 95 % 1013,1 hPa 0,0 l/m 0 min 0 min 0 W/m 3,2 km/h (1 Bft) 97,87 %
04.11.2022 21:32 9,8 C 8,9 C 6,1 C 95 % 1013,1 hPa 0,0 l/m 0 min 0 min 0 W/m 0,0 km/h (0 Bft) 100,00 %
04.11.2022 21:34 9,8 C 8,9 C 6,1 C 95 % 1013,2 hPa 0,0 l/m 0 min 0 min 0 W/m 0,0 km/h (0 Bft) 100,00 %
04.11.2022 21:36 9,8 C 8,9 C 6,1 C 95 % 1013,3 hPa 0,0 l/m 0 min 0 min 0 W/m 3,2 km/h (1 Bft) 100,00 %
04.11.2022 21:38 9,8 C 8,9 C 6,1 C 95 % 1013,3 hPa 0,0 l/m 0 min 0 min 0 W/m 3,2 km/h (1 Bft) 100,00 %
04.11.2022 21:40 9,8 C 8,9 C 6,1 C 95 % 1013,3 hPa 0,0 l/m 0 min 0 min 0 W/m 3,2 km/h (1 Bft) 100,00 %
04.11.2022 21:42 9,8 C 8,9 C 6,1 C 95 % 1013,4 hPa 0,0 l/m 0 min 0 min 0 W/m 3,2 km/h (1 Bft) 100,00 %
04.11.2022 21:44 9,7 C 8,9 C 6,1 C 95 % 1013,4 hPa 0,0 l/m 0 min 0 min 0 W/m 3,2 km/h (1 Bft) 100,00 %
04.11.2022 21:46 9,7 C 8,9 C 6,1 C 95 % 1013,4 hPa 0,0 l/m 0 min 0 min 0 W/m 0,0 km/h (0 Bft) 97,83 %
04.11.2022 21:48 9,7 C 8,9 C 6,1 C 95 % 1013,4 hPa 0,0 l/m 0 min 0 min 0 W/m 3,2 km/h (1 Bft) 97,87 %
04.11.2022 21:50 9,7 C 8,9 C 6,1 C 95 % 1013,5 hPa 0,0 l/m 0 min 0 min 0 W/m 3,2 km/h (1 Bft) 100,00 %
04.11.2022 21:52 9,7 C 8,9 C 6,1 C 95 % 1013,5 hPa 0,0 l/m 0 min 0 min 0 W/m 0,0 km/h (0 Bft) 100,00 %
04.11.2022 21:54 9,7 C 8,9 C 6,1 C 95 % 1013,6 hPa 0,0 l/m 0 min 0 min 0 W/m 3,2 km/h (1 Bft) 97,87 %
04.11.2022 21:56 9,7 C 8,9 C 6,1 C 95 % 1013,7 hPa 0,0 l/m 0 min 0 min 0 W/m 3,2 km/h (1 Bft) 97,87 %
04.11.2022 21:58 9,7 C 8,9 C 6,1 C 95 % 1013,6 hPa 0,0 l/m 0 min 0 min 0 W/m 0,0 km/h (0 Bft) 97,83 %
04.11.2022 22:00 9,6 C 8,9 C 6,1 C 95 % 1013,7 hPa 0,0 l/m 0 min 0 min 0 W/m 3,2 km/h (1 Bft) 97,87 %
04.11.2022 22:02 9,6 C 8,9 C 6,1 C 95 % 1013,7 hPa 0,0 l/m 0 min 0 min 0 W/m 0,0 km/h (0 Bft) 97,87 %
04.11.2022 22:04 9,6 C 8,9 C 6,1 C 95 % 1013,6 hPa 0,0 l/m 0 min 0 min 0 W/m 0,0 km/h (0 Bft) 97,87 %
04.11.2022 22:06 9,6 C 8,3 C 5,6 C 95 % 1013,7 hPa 0,0 l/m 0 min 0 min 0 W/m 3,2 km/h (1 Bft) 97,87 %
04.11.2022 22:08 9,6 C 8,3 C 5,6 C 95 % 1013,7 hPa 0,0 l/m 0 min 0 min 0 W/m 0,0 km/h (0 Bft) 97,83 %
04.11.2022 22:10 9,5 C 8,3 C 5,6 C 95 % 1013,7 hPa 0,0 l/m 0 min 0 min 0 W/m 3,2 km/h (1 Bft) 97,87 %
04.11.2022 22:12 9,5 C 8,3 C 5,6 C 95 % 1013,7 hPa 0,0 l/m 0 min 0 min 0 W/m 3,2 km/h (1 Bft) 97,87 %
04.11.2022 22:14 9,4 C 8,3 C 5,6 C 95 % 1013,8 hPa 0,0 l/m 0 min 0 min 0 W/m 0,0 km/h (0 Bft) 97,87 %
04.11.2022 22:16 9,4 C 8,3 C 5,6 C 95 % 1013,8 hPa 0,0 l/m 0 min 0 min 0 W/m 0,0 km/h (0 Bft) 97,87 %
04.11.2022 22:18 9,4 C 8,3 C 5,6 C 95 % 1013,9 hPa 0,0 l/m 0 min 0 min 0 W/m 0,0 km/h (0 Bft) 97,87 %
04.11.2022 22:20 9,3 C 8,3 C 5,6 C 95 % 1013,9 hPa 0,0 l/m 0 min 0 min 0 W/m 0,0 km/h (0 Bft) 97,83 %
04.11.2022 22:22 9,3 C 8,3 C 5,6 C 95 % 1014,1 hPa 0,0 l/m 0 min 0 min 0 W/m 0,0 km/h (0 Bft) 95,74 %
04.11.2022 22:24 9,2 C 8,3 C 5,6 C 94 % 1014,1 hPa 0,0 l/m 0 min 0 min 0 W/m 0,0 km/h (0 Bft) 97,87 %
04.11.2022 22:26 9,2 C 7,8 C 5,0 C 94 % 1014,1 hPa 0,0 l/m 0 min 0 min 0 W/m 0,0 km/h (0 Bft) 97,87 %
04.11.2022 22:28 9,1 C 7,8 C 5,0 C 94 % 1014,2 hPa 0,0 l/m 0 min 0 min 0 W/m 0,0 km/h (0 Bft) 100,00 %
04.11.2022 22:30 9,1 C 7,8 C 5,0 C 94 % 1014,2 hPa 0,0 l/m 0 min 0 min 0 W/m 0,0 km/h (0 Bft) 100,00 %
04.11.2022 22:32 9,1 C 7,8 C 5,0 C 94 % 1014,2 hPa 0,0 l/m 0 min 0 min 0 W/m 0,0 km/h (0 Bft) 100,00 %
04.11.2022 22:34 9,0 C 7,8 C 5,0 C 94 % 1014,3 hPa 0,0 l/m 0 min 0 min 0 W/m 0,0 km/h (0 Bft) 100,00 %
04.11.2022 22:36 8,9 C 7,8 C 5,0 C 94 % 1014,3 hPa 0,0 l/m 0 min 0 min 0 W/m 0,0 km/h (0 Bft) 100,00 %
04.11.2022 22:38 8,9 C 7,8 C 5,0 C 94 % 1014,3 hPa 0,0 l/m 0 min 0 min 0 W/m 0,0 km/h (0 Bft) 100,00 %
04.11.2022 22:40 8,8 C 7,2 C 4,4 C 94 % 1014,3 hPa 0,0 l/m 0 min 0 min 0 W/m 0,0 km/h (0 Bft) 100,00 %
04.11.2022 22:42 8,8 C 7,2 C 4,4 C 94 % 1014,4 hPa 0,0 l/m 0 min 0 min 0 W/m 0,0 km/h (0 Bft) 100,00 %
04.11.2022 22:44 8,8 C 7,2 C 4,4 C 94 % 1014,4 hPa 0,0 l/m 0 min 0 min 0 W/m 0,0 km/h (0 Bft) 100,00 %
04.11.2022 22:46 8,8 C 7,2 C 4,4 C 94 % 1014,4 hPa 0,0 l/m 0 min 0 min 0 W/m 0,0 km/h (0 Bft) 97,87 %
04.11.2022 22:48 8,7 C 7,2 C 4,4 C 94 % 1014,4 hPa 0,0 l/m 0 min 0 min 0 W/m 0,0 km/h (0 Bft) 100,00 %
04.11.2022 22:50 8,7 C 7,2 C 4,4 C 94 % 1014,4 hPa 0,0 l/m 0 min 0 min 0 W/m 0,0 km/h (0 Bft) 100,00 %
04.11.2022 22:52 8,6 C 7,2 C 4,4 C 94 % 1014,4 hPa 0,0 l/m 0 min 0 min 0 W/m 0,0 km/h (0 Bft) 100,00 %
04.11.2022 22:54 8,6 C 7,2 C 4,4 C 94 % 1014,5 hPa 0,0 l/m 0 min 0 min 0 W/m 0,0 km/h (0 Bft) 100,00 %
04.11.2022 22:56 8,6 C 7,2 C 4,4 C 94 % 1014,5 hPa 0,0 l/m 0 min 0 min 0 W/m 3,2 km/h (1 Bft) 100,00 %
04.11.2022 22:58 8,5 C 7,2 C 4,4 C 94 % 1014,5 hPa 0,0 l/m 0 min 0 min 0 W/m 3,2 km/h (1 Bft) 95,74 %
04.11.2022 23:00 8,5 C 7,8 C 5,0 C 94 % 1014,6 hPa 0,0 l/m 0 min 0 min 0 W/m 3,2 km/h (1 Bft) 95,74 %
04.11.2022 23:02 8,5 C 7,8 C 5,0 C 94 % 1014,6 hPa 0,0 l/m 0 min 0 min 0 W/m 3,2 km/h (1 Bft) 97,87 %
04.11.2022 23:04 8,5 C 7,8 C 5,0 C 94 % 1014,7 hPa 0,0 l/m 0 min 0 min 0 W/m 3,2 km/h (1 Bft) 100,00 %
04.11.2022 23:06 8,5 C 7,8 C 5,0 C 94 % 1014,7 hPa 0,0 l/m 0 min 0 min 0 W/m 6,4 km/h (2 Bft) 97,87 %
04.11.2022 23:08 8,5 C 7,8 C 5,0 C 94 % 1014,6 hPa 0,0 l/m 0 min 0 min 0 W/m 0,0 km/h (0 Bft) 100,00 %
04.11.2022 23:10 8,6 C 7,8 C 5,0 C 94 % 1014,7 hPa 0,0 l/m 0 min 0 min 0 W/m 0,0 km/h (0 Bft) 100,00 %
04.11.2022 23:12 8,6 C 7,8 C 5,0 C 94 % 1014,6 hPa 0,0 l/m 0 min 0 min 0 W/m 0,0 km/h (0 Bft) 97,87 %
04.11.2022 23:14 8,5 C 7,8 C 5,0 C 94 % 1014,7 hPa 0,0 l/m 0 min 0 min 0 W/m 0,0 km/h (0 Bft) 95,74 %
04.11.2022 23:16 8,5 C 7,8 C 5,0 C 94 % 1014,7 hPa 0,0 l/m 0 min 0 min 0 W/m 3,2 km/h (1 Bft) 97,87 %
04.11.2022 23:18 8,5 C 7,8 C 5,0 C 94 % 1014,7 hPa 0,0 l/m 0 min 0 min 0 W/m 0,0 km/h (0 Bft) 97,87 %
04.11.2022 23:20 8,5 C 7,8 C 5,0 C 94 % 1014,7 hPa 0,0 l/m 0 min 0 min 0 W/m 3,2 km/h (1 Bft) 97,83 %
04.11.2022 23:22 8,4 C 7,8 C 5,0 C 94 % 1014,7 hPa 0,0 l/m 0 min 0 min 0 W/m 0,0 km/h (0 Bft) 95,74 %
04.11.2022 23:24 8,4 C 7,2 C 5,0 C 94 % 1014,7 hPa 0,0 l/m 0 min 0 min 0 W/m 3,2 km/h (1 Bft) 97,87 %
04.11.2022 23:26 8,4 C 7,2 C 5,0 C 94 % 1014,7 hPa 0,0 l/m 0 min 0 min 0 W/m 0,0 km/h (0 Bft) 97,87 %
04.11.2022 23:28 8,4 C 7,2 C 5,0 C 94 % 1014,7 hPa 0,0 l/m 0 min 0 min 0 W/m 0,0 km/h (0 Bft) 97,87 %
04.11.2022 23:30 8,3 C 7,2 C 4,4 C 94 % 1014,7 hPa 0,0 l/m 0 min 0 min 0 W/m 3,2 km/h (1 Bft) 95,65 %
04.11.2022 23:32 8,3 C 7,2 C 4,4 C 94 % 1014,7 hPa 0,0 l/m 0 min 0 min 0 W/m 3,2 km/h (1 Bft) 97,87 %
04.11.2022 23:34 8,3 C 7,2 C 4,4 C 94 % 1014,7 hPa 0,0 l/m 0 min 0 min 0 W/m 3,2 km/h (1 Bft) 95,74 %
04.11.2022 23:36 8,3 C 7,2 C 4,4 C 94 % 1014,8 hPa 0,0 l/m 0 min 0 min 0 W/m 0,0 km/h (0 Bft) 95,74 %
04.11.2022 23:38 8,3 C 7,2 C 4,4 C 94 % 1014,8 hPa 0,0 l/m 0 min 0 min 0 W/m 0,0 km/h (0 Bft) 97,87 %
04.11.2022 23:40 8,2 C 7,2 C 4,4 C 94 % 1014,8 hPa 0,0 l/m 0 min 0 min 0 W/m 0,0 km/h (0 Bft) 95,74 %
04.11.2022 23:42 8,2 C 7,2 C 4,4 C 94 % 1014,8 hPa 0,0 l/m 0 min 0 min 0 W/m 0,0 km/h (0 Bft) 95,65 %
04.11.2022 23:44 8,2 C 7,2 C 4,4 C 94 % 1014,8 hPa 0,0 l/m 0 min 0 min 0 W/m 3,2 km/h (1 Bft) 95,74 %
04.11.2022 23:46 8,1 C 6,7 C 3,9 C 94 % 1014,8 hPa 0,0 l/m 0 min 0 min 0 W/m 0,0 km/h (0 Bft) 93,62 %
04.11.2022 23:48 8,1 C 6,7 C 3,9 C 94 % 1014,8 hPa 0,0 l/m 0 min 0 min 0 W/m 0,0 km/h (0 Bft) 93,62 %
04.11.2022 23:50 8,1 C 6,7 C 3,9 C 94 % 1014,8 hPa 0,0 l/m 0 min 0 min 0 W/m 3,2 km/h (1 Bft) 93,62 %
04.11.2022 23:52 8,0 C 6,7 C 3,9 C 94 % 1014,9 hPa 0,0 l/m 0 min 0 min 0 W/m 3,2 km/h (1 Bft) 95,74 %
04.11.2022 23:54 8,0 C 6,7 C 3,9 C 94 % 1014,9 hPa 0,0 l/m 0 min 0 min 0 W/m 3,2 km/h (1 Bft) 93,48 %
04.11.2022 23:56 8,0 C 6,7 C 3,9 C 94 % 1014,9 hPa 0,0 l/m 0 min 0 min 0 W/m 3,2 km/h (1 Bft) 97,87 %
04.11.2022 23:58 7,9 C 6,7 C 3,9 C 94 % 1014,9 hPa 0,0 l/m 0 min 0 min 0 W/m 3,2 km/h (1 Bft) 95,74 %
_ Min-Zeit 07:56 07:22 05:54 14:06 00:00 - - - - 05:18 07:14
Minimum _ 7,2 C 6,1 C 3,9 C 84 % 1001,7 hPa - - - - 0,0 km/h (0 Bft) 25,93 %
_ Max-Zeit 14:06 13:58 13:16 08:28 23:52 08:54 12:10 01:12 14:00 02:12 00:10
Maximum _ 12,6 C 13,3 C 8,9 C 96 % 1014,9 hPa 0,2 l/m 2 min 2 min 315 W/m 32,2 km/h
W-NW (5 Bft)
100,00 %
Durchschnitt _ 9,9 C 9,2 C 6,0 C 92 % 1007,6 hPa #0,2 l/m #30 min. #36 min. 77 W/m 5,3 km/h (1 Bft) 96,56 %
© 2022 W. Hausmann